Wetterdaten: Sonntag, 09.03.2014
Datum Zeit Temp. Aussen +5cm Feuchte Auss Luftdruck Regen Sonnenschein Regendauer UV Solar Windben
09.03.2014 00:00 9,8 C 7,8 C 70 % 1027,9 hPa 0,0 l/m 0 min 0 min 0,0 UV-I 0 W/m 18,0 km/h (3 Bft)
09.03.2014 00:02 9,8 C 7,8 C 70 % 1027,8 hPa 0,0 l/m 0 min 0 min 0,0 UV-I 0 W/m 12,9 km/h (3 Bft)
09.03.2014 00:06 9,8 C 7,8 C 70 % 1027,8 hPa 0,0 l/m 0 min 0 min 0,0 UV-I 0 W/m 20,6 km/h (4 Bft)
09.03.2014 00:08 9,8 C 7,8 C 70 % 1027,7 hPa 0,0 l/m 0 min 0 min 0,0 UV-I 0 W/m 15,4 km/h (3 Bft)
09.03.2014 00:10 9,8 C 7,8 C 70 % 1027,7 hPa 0,0 l/m 0 min 0 min 0,0 UV-I 0 W/m 15,4 km/h (3 Bft)
09.03.2014 00:12 9,8 C 7,8 C 69 % 1027,7 hPa 0,0 l/m 0 min 0 min 0,0 UV-I 0 W/m 23,2 km/h (4 Bft)
09.03.2014 00:14 9,8 C 7,8 C 69 % 1027,7 hPa 0,0 l/m 0 min 0 min 0,0 UV-I 0 W/m 18,0 km/h (3 Bft)
09.03.2014 00:16 9,8 C 7,8 C 69 % 1027,7 hPa 0,0 l/m 0 min 0 min 0,0 UV-I 0 W/m 23,2 km/h (4 Bft)
09.03.2014 00:18 9,8 C 7,8 C 69 % 1027,7 hPa 0,0 l/m 0 min 0 min 0,0 UV-I 0 W/m 25,7 km/h (4 Bft)
09.03.2014 00:20 9,8 C 7,8 C 69 % 1027,7 hPa 0,0 l/m 0 min 0 min 0,0 UV-I 0 W/m 12,9 km/h (3 Bft)
09.03.2014 00:22 9,8 C 7,8 C 69 % 1027,6 hPa 0,0 l/m 0 min 0 min 0,0 UV-I 0 W/m 23,2 km/h (4 Bft)
09.03.2014 00:24 9,8 C 7,8 C 69 % 1027,6 hPa 0,0 l/m 0 min 0 min 0,0 UV-I 0 W/m 10,3 km/h (2 Bft)
09.03.2014 00:26 9,8 C 7,8 C 69 % 1027,6 hPa 0,0 l/m 0 min 0 min 0,0 UV-I 0 W/m 25,7 km/h (4 Bft)
09.03.2014 00:28 9,8 C 7,8 C 69 % 1027,6 hPa 0,0 l/m 0 min 0 min 0,0 UV-I 0 W/m 18,0 km/h (3 Bft)
09.03.2014 00:30 9,8 C 7,8 C 68 % 1027,6 hPa 0,0 l/m 0 min 0 min 0,0 UV-I 0 W/m 18,0 km/h (3 Bft)
09.03.2014 00:32 9,9 C 7,8 C 68 % 1027,6 hPa 0,0 l/m 0 min 0 min 0,0 UV-I 0 W/m 23,2 km/h (4 Bft)
09.03.2014 00:34 9,9 C 7,8 C 68 % 1027,6 hPa 0,0 l/m 0 min 0 min 0,0 UV-I 0 W/m 15,4 km/h (3 Bft)
09.03.2014 00:36 9,8 C 7,8 C 68 % 1027,5 hPa 0,0 l/m 0 min 0 min 0,0 UV-I 0 W/m 18,0 km/h (3 Bft)
09.03.2014 00:38 9,8 C 7,8 C 68 % 1027,5 hPa 0,0 l/m 0 min 0 min 0,0 UV-I 0 W/m 18,0 km/h (3 Bft)
09.03.2014 00:40 9,7 C 7,2 C 69 % 1027,5 hPa 0,0 l/m 0 min 0 min 0,0 UV-I 0 W/m 25,7 km/h (4 Bft)
09.03.2014 00:42 9,7 C 7,8 C 69 % 1027,5 hPa 0,0 l/m 0 min 0 min 0,0 UV-I 0 W/m 20,6 km/h (4 Bft)
09.03.2014 00:44 9,7 C 7,8 C 69 % 1027,6 hPa 0,0 l/m 0 min 0 min 0,0 UV-I 0 W/m 20,6 km/h (4 Bft)
09.03.2014 00:46 9,7 C 7,2 C 69 % 1027,5 hPa 0,0 l/m 0 min 0 min 0,0 UV-I 0 W/m 15,4 km/h (3 Bft)
09.03.2014 00:48 9,6 C 7,8 C 69 % 1027,5 hPa 0,0 l/m 0 min 0 min 0,0 UV-I 0 W/m 18,0 km/h (3 Bft)
09.03.2014 00:50 9,6 C 7,2 C 69 % 1027,5 hPa 0,0 l/m 0 min 0 min 0,0 UV-I 0 W/m 15,4 km/h (3 Bft)
09.03.2014 00:52 9,6 C 7,2 C 69 % 1027,5 hPa 0,0 l/m 0 min 0 min 0,0 UV-I 0 W/m 10,3 km/h (2 Bft)
09.03.2014 00:54 9,6 C 7,2 C 69 % 1027,4 hPa 0,0 l/m 0 min 0 min 0,0 UV-I 0 W/m 23,2 km/h (4 Bft)
09.03.2014 00:56 9,6 C 7,2 C 69 % 1027,5 hPa 0,0 l/m 0 min 0 min 0,0 UV-I 0 W/m 20,6 km/h (4 Bft)
09.03.2014 00:58 9,6 C 7,2 C 69 % 1027,5 hPa 0,0 l/m 0 min 0 min 0,0 UV-I 0 W/m 15,4 km/h (3 Bft)
09.03.2014 01:00 9,5 C 7,2 C 69 % 1027,4 hPa 0,0 l/m 0 min 0 min 0,0 UV-I 0 W/m 12,9 km/h (3 Bft)
09.03.2014 01:02 9,5 C 7,2 C 69 % 1027,4 hPa 0,0 l/m 0 min 0 min 0,0 UV-I 0 W/m 10,3 km/h (2 Bft)
09.03.2014 01:04 9,4 C 7,2 C 69 % 1027,4 hPa 0,0 l/m 0 min 0 min 0,0 UV-I 0 W/m 12,9 km/h (3 Bft)
09.03.2014 01:06 9,4 C 7,2 C 69 % 1027,4 hPa 0,0 l/m 0 min 0 min 0,0 UV-I 0 W/m 12,9 km/h (3 Bft)
09.03.2014 01:08 9,4 C 7,2 C 69 % 1027,4 hPa 0,0 l/m 0 min 0 min 0,0 UV-I 0 W/m 12,9 km/h (3 Bft)
09.03.2014 01:10 9,4 C 7,2 C 69 % 1027,5 hPa 0,0 l/m 0 min 0 min 0,0 UV-I 0 W/m 15,4 km/h (3 Bft)
09.03.2014 01:12 9,4 C 7,2 C 69 % 1027,4 hPa 0,0 l/m 0 min 0 min 0,0 UV-I 0 W/m 20,6 km/h (4 Bft)
09.03.2014 01:14 9,4 C 7,2 C 69 % 1027,4 hPa 0,0 l/m 0 min 0 min 0,0 UV-I 0 W/m 15,4 km/h (3 Bft)
09.03.2014 01:16 9,3 C 7,2 C 69 % 1027,3 hPa 0,0 l/m 0 min 0 min 0,0 UV-I 0 W/m 18,0 km/h (3 Bft)
09.03.2014 01:18 9,3 C 7,2 C 70 % 1027,4 hPa 0,0 l/m 0 min 0 min 0,0 UV-I 0 W/m 18,0 km/h (3 Bft)
09.03.2014 01:20 9,3 C 7,2 C 70 % 1027,4 hPa 0,0 l/m 0 min 0 min 0,0 UV-I 0 W/m 12,9 km/h (3 Bft)
09.03.2014 01:22 9,3 C 7,2 C 70 % 1027,3 hPa 0,0 l/m 0 min 0 min 0,0 UV-I 0 W/m 23,2 km/h (4 Bft)
09.03.2014 01:24 9,3 C 7,2 C 70 % 1027,3 hPa 0,0 l/m 0 min 0 min 0,0 UV-I 0 W/m 18,0 km/h (3 Bft)
09.03.2014 01:26 9,3 C 7,2 C 70 % 1027,3 hPa 0,0 l/m 0 min 0 min 0,0 UV-I 0 W/m 12,9 km/h (3 Bft)
09.03.2014 01:28 9,3 C 7,2 C 70 % 1027,3 hPa 0,0 l/m 0 min 0 min 0,0 UV-I 0 W/m 10,3 km/h (2 Bft)
09.03.2014 01:30 9,3 C 7,2 C 70 % 1027,3 hPa 0,0 l/m 0 min 0 min 0,0 UV-I 0 W/m 10,3 km/h (2 Bft)
09.03.2014 01:32 9,2 C 7,2 C 70 % 1027,2 hPa 0,0 l/m 0 min 0 min 0,0 UV-I 0 W/m 12,9 km/h (3 Bft)
09.03.2014 01:34 9,2 C 7,2 C 70 % 1027,2 hPa 0,0 l/m 0 min 0 min 0,0 UV-I 0 W/m 12,9 km/h (3 Bft)
09.03.2014 01:36 9,2 C 7,2 C 70 % 1027,2 hPa 0,0 l/m 0 min 0 min 0,0 UV-I 0 W/m 7,7 km/h (2 Bft)
09.03.2014 01:38 9,2 C 7,2 C 70 % 1027,2 hPa 0,0 l/m 0 min 0 min 0,0 UV-I 0 W/m 7,7 km/h (2 Bft)
09.03.2014 01:40 9,1 C 7,2 C 70 % 1027,2 hPa 0,0 l/m 0 min 0 min 0,0 UV-I 0 W/m 0,0 km/h (0 Bft)
09.03.2014 01:42 9,1 C 6,7 C 70 % 1027,2 hPa 0,0 l/m 0 min 0 min 0,0 UV-I 0 W/m 5,1 km/h (1 Bft)
09.03.2014 01:44 9,0 C 6,7 C 70 % 1027,2 hPa 0,0 l/m 0 min 0 min 0,0 UV-I 0 W/m 15,4 km/h (3 Bft)
09.03.2014 01:46 9,0 C 6,7 C 70 % 1027,2 hPa 0,0 l/m 0 min 0 min 0,0 UV-I 0 W/m 15,4 km/h (3 Bft)
09.03.2014 01:48 8,9 C 6,7 C 71 % 1027,2 hPa 0,0 l/m 0 min 0 min 0,0 UV-I 0 W/m 2,6 km/h (1 Bft)
09.03.2014 01:50 8,9 C 6,7 C 71 % 1027,2 hPa 0,0 l/m 0 min 0 min 0,0 UV-I 0 W/m 12,9 km/h (3 Bft)
09.03.2014 01:52 8,9 C 6,7 C 71 % 1027,2 hPa 0,0 l/m 0 min 0 min 0,0 UV-I 0 W/m 10,3 km/h (2 Bft)
09.03.2014 01:54 8,9 C 6,7 C 71 % 1027,2 hPa 0,0 l/m 0 min 0 min 0,0 UV-I 0 W/m 15,4 km/h (3 Bft)
09.03.2014 01:56 8,9 C 6,7 C 71 % 1027,2 hPa 0,0 l/m 0 min 0 min 0,0 UV-I 0 W/m 12,9 km/h (3 Bft)
09.03.2014 01:58 8,9 C 6,7 C 71 % 1027,2 hPa 0,0 l/m 0 min 0 min 0,0 UV-I 0 W/m 15,4 km/h (3 Bft)
09.03.2014 02:00 8,9 C 6,7 C 71 % 1027,1 hPa 0,0 l/m 0 min 0 min 0,0 UV-I 0 W/m 12,9 km/h (3 Bft)
09.03.2014 02:02 8,9 C 6,7 C 71 % 1027,0 hPa 0,0 l/m 0 min 0 min 0,0 UV-I 0 W/m 15,4 km/h (3 Bft)
09.03.2014 02:04 8,9 C 6,7 C 71 % 1027,0 hPa 0,0 l/m 0 min 0 min 0,0 UV-I 0 W/m 18,0 km/h (3 Bft)
09.03.2014 02:06 8,8 C 6,7 C 71 % 1027,0 hPa 0,0 l/m 0 min 0 min 0,0 UV-I 0 W/m 10,3 km/h (2 Bft)
09.03.2014 02:08 8,8 C 6,7 C 71 % 1027,0 hPa 0,0 l/m 0 min 0 min 0,0 UV-I 0 W/m 25,7 km/h (4 Bft)
09.03.2014 02:10 8,7 C 6,7 C 71 % 1026,8 hPa 0,0 l/m 0 min 0 min 0,0 UV-I 0 W/m 10,3 km/h (2 Bft)
09.03.2014 02:12 8,8 C 6,7 C 71 % 1026,8 hPa 0,0 l/m 0 min 0 min 0,0 UV-I 0 W/m 20,6 km/h (4 Bft)
09.03.2014 02:14 8,8 C 6,7 C 71 % 1027,0 hPa 0,0 l/m 0 min 0 min 0,0 UV-I 0 W/m 18,0 km/h (3 Bft)
09.03.2014 02:16 8,8 C 6,7 C 71 % 1026,8 hPa 0,0 l/m 0 min 0 min 0,0 UV-I 0 W/m 20,6 km/h (4 Bft)
09.03.2014 02:18 8,8 C 6,7 C 71 % 1026,8 hPa 0,0 l/m 0 min 0 min 0,0 UV-I 0 W/m 12,9 km/h (3 Bft)
09.03.2014 02:20 8,7 C 6,7 C 71 % 1026,8 hPa 0,0 l/m 0 min 0 min 0,0 UV-I 0 W/m 10,3 km/h (2 Bft)
09.03.2014 02:22 8,7 C 6,7 C 71 % 1026,8 hPa 0,0 l/m 0 min 0 min 0,0 UV-I 0 W/m 20,6 km/h (4 Bft)
09.03.2014 02:24 8,7 C 6,7 C 71 % 1026,8 hPa 0,0 l/m 0 min 0 min 0,0 UV-I 0 W/m 12,9 km/h (3 Bft)
09.03.2014 02:26 8,7 C 6,7 C 72 % 1026,8 hPa 0,0 l/m 0 min 0 min 0,0 UV-I 0 W/m 10,3 km/h (2 Bft)
09.03.2014 02:28 8,7 C 6,7 C 72 % 1026,7 hPa 0,0 l/m 0 min 0 min 0,0 UV-I 0 W/m 7,7 km/h (2 Bft)
09.03.2014 02:30 8,7 C 6,7 C 72 % 1026,8 hPa 0,0 l/m 0 min 0 min 0,0 UV-I 0 W/m 18,0 km/h (3 Bft)
09.03.2014 02:32 8,7 C 6,7 C 72 % 1026,7 hPa 0,0 l/m 0 min 0 min 0,0 UV-I 0 W/m 15,4 km/h (3 Bft)
09.03.2014 02:34 8,7 C 6,7 C 72 % 1026,8 hPa 0,0 l/m 0 min 0 min 0,0 UV-I 0 W/m 12,9 km/h (3 Bft)
09.03.2014 02:36 8,7 C 6,7 C 72 % 1026,8 hPa 0,0 l/m 0 min 0 min 0,0 UV-I 0 W/m 15,4 km/h (3 Bft)
09.03.2014 02:38 8,7 C 6,7 C 72 % 1026,7 hPa 0,0 l/m 0 min 0 min 0,0 UV-I 0 W/m 15,4 km/h (3 Bft)
09.03.2014 02:40 8,7 C 6,7 C 72 % 1026,7 hPa 0,0 l/m 0 min 0 min 0,0 UV-I 0 W/m 15,4 km/h (3 Bft)
09.03.2014 02:42 8,7 C 6,7 C 72 % 1026,7 hPa 0,0 l/m 0 min 0 min 0,0 UV-I 0 W/m 12,9 km/h (3 Bft)
09.03.2014 02:44 8,7 C 6,7 C 72 % 1026,7 hPa 0,0 l/m 0 min 0 min 0,0 UV-I 0 W/m 18,0 km/h (3 Bft)
09.03.2014 02:46 8,7 C 6,7 C 72 % 1026,7 hPa 0,0 l/m 0 min 0 min 0,0 UV-I 0 W/m 12,9 km/h (3 Bft)
09.03.2014 02:48 8,7 C 6,7 C 72 % 1026,7 hPa 0,0 l/m 0 min 0 min 0,0 UV-I 0 W/m 15,4 km/h (3 Bft)
09.03.2014 02:50 8,7 C 6,7 C 72 % 1026,6 hPa 0,0 l/m 0 min 0 min 0,0 UV-I 0 W/m 23,2 km/h (4 Bft)
09.03.2014 02:52 8,7 C 6,7 C 72 % 1026,6 hPa 0,0 l/m 0 min 0 min 0,0 UV-I 0 W/m 18,0 km/h (3 Bft)
09.03.2014 02:54 8,8 C 6,7 C 71 % 1026,6 hPa 0,0 l/m 0 min 0 min 0,0 UV-I 0 W/m 18,0 km/h (3 Bft)
09.03.2014 02:56 8,8 C 6,7 C 71 % 1026,5 hPa 0,0 l/m 0 min 0 min 0,0 UV-I 0 W/m 12,9 km/h (3 Bft)
09.03.2014 02:58 8,8 C 6,7 C 71 % 1026,6 hPa 0,0 l/m 0 min 0 min 0,0 UV-I 0 W/m 15,4 km/h (3 Bft)
09.03.2014 03:00 8,8 C 6,7 C 71 % 1026,6 hPa 0,0 l/m 0 min 0 min 0,0 UV-I 0 W/m 15,4 km/h (3 Bft)
09.03.2014 03:02 8,8 C 6,7 C 71 % 1026,5 hPa 0,0 l/m 0 min 0 min 0,0 UV-I 0 W/m 10,3 km/h (2 Bft)
09.03.2014 03:04 8,7 C 6,7 C 72 % 1026,5 hPa 0,0 l/m 0 min 0 min 0,0 UV-I 0 W/m 15,4 km/h (3 Bft)
09.03.2014 03:06 8,7 C 6,7 C 72 % 1026,5 hPa 0,0 l/m 0 min 0 min 0,0 UV-I 0 W/m 12,9 km/h (3 Bft)
09.03.2014 03:08 8,7 C 6,7 C 72 % 1026,4 hPa 0,0 l/m 0 min 0 min 0,0 UV-I 0 W/m 15,4 km/h (3 Bft)
09.03.2014 03:10 8,7 C 6,7 C 72 % 1026,4 hPa 0,0 l/m 0 min 0 min 0,0 UV-I 0 W/m 10,3 km/h (2 Bft)
09.03.2014 03:12 8,7 C 6,7 C 72 % 1026,4 hPa 0,0 l/m 0 min 0 min 0,0 UV-I 0 W/m 15,4 km/h (3 Bft)
09.03.2014 03:14 8,7 C 6,7 C 72 % 1026,4 hPa 0,0 l/m 0 min 0 min 0,0 UV-I 0 W/m 15,4 km/h (3 Bft)
09.03.2014 03:16 8,7 C 6,7 C 72 % 1026,3 hPa 0,0 l/m 0 min 0 min 0,0 UV-I 0 W/m 15,4 km/h (3 Bft)
09.03.2014 03:18 8,7 C 6,7 C 72 % 1026,3 hPa 0,0 l/m 0 min 0 min 0,0 UV-I 0 W/m 20,6 km/h (4 Bft)
09.03.2014 03:20 8,7 C 6,7 C 72 % 1026,4 hPa 0,0 l/m 0 min 0 min 0,0 UV-I 0 W/m 18,0 km/h (3 Bft)
09.03.2014 03:22 8,7 C 6,7 C 71 % 1026,3 hPa 0,0 l/m 0 min 0 min 0,0 UV-I 0 W/m 15,4 km/h (3 Bft)
09.03.2014 03:24 8,8 C 6,7 C 71 % 1026,4 hPa 0,0 l/m 0 min 0 min 0,0 UV-I 0 W/m 23,2 km/h (4 Bft)
09.03.2014 03:26 8,8 C 6,7 C 71 % 1026,3 hPa 0,0 l/m 0 min 0 min 0,0 UV-I 0 W/m 20,6 km/h (4 Bft)
09.03.2014 03:28 8,8 C 6,7 C 71 % 1026,4 hPa 0,0 l/m 0 min 0 min 0,0 UV-I 0 W/m 20,6 km/h (4 Bft)
09.03.2014 03:30 8,8 C 6,7 C 71 % 1026,3 hPa 0,0 l/m 0 min 0 min 0,0 UV-I 0 W/m 18,0 km/h (3 Bft)
09.03.2014 03:32 8,8 C 6,7 C 71 % 1026,4 hPa 0,0 l/m 0 min 0 min 0,0 UV-I 0 W/m 20,6 km/h (4 Bft)
09.03.2014 03:34 8,8 C 6,7 C 71 % 1026,4 hPa 0,0 l/m 0 min 0 min 0,0 UV-I 0 W/m 25,7 km/h (4 Bft)
09.03.2014 03:36 8,8 C 6,7 C 71 % 1026,4 hPa 0,0 l/m 0 min 0 min 0,0 UV-I 0 W/m 20,6 km/h (4 Bft)
09.03.2014 03:38 8,9 C 6,7 C 71 % 1026,4 hPa 0,0 l/m 0 min 0 min 0,0 UV-I 0 W/m 18,0 km/h (3 Bft)
09.03.2014 03:40 8,9 C 6,7 C 71 % 1026,4 hPa 0,0 l/m 0 min 0 min 0,0 UV-I 0 W/m 18,0 km/h (3 Bft)
09.03.2014 03:42 8,9 C 6,7 C 71 % 1026,4 hPa 0,0 l/m 0 min 0 min 0,0 UV-I 0 W/m 25,7 km/h (4 Bft)
09.03.2014 03:44 8,9 C 6,7 C 71 % 1026,4 hPa 0,0 l/m 0 min 0 min 0,0 UV-I 0 W/m 23,2 km/h (4 Bft)
09.03.2014 03:46 8,9 C 6,7 C 71 % 1026,4 hPa 0,0 l/m 0 min 0 min 0,0 UV-I 0 W/m 18,0 km/h (3 Bft)
09.03.2014 03:48 8,9 C 6,7 C 71 % 1026,3 hPa 0,0 l/m 0 min 0 min 0,0 UV-I 0 W/m 25,7 km/h (4 Bft)
09.03.2014 03:50 8,9 C 6,7 C 71 % 1026,3 hPa 0,0 l/m 0 min 0 min 0,0 UV-I 0 W/m 12,9 km/h (3 Bft)
09.03.2014 03:52 8,9 C 6,7 C 71 % 1026,4 hPa 0,0 l/m 0 min 0 min 0,0 UV-I 0 W/m 28,3 km/h (4 Bft)
09.03.2014 03:54 8,9 C 6,7 C 71 % 1026,3 hPa 0,0 l/m 0 min 0 min 0,0 UV-I 0 W/m 20,6 km/h (4 Bft)
09.03.2014 03:56 8,9 C 6,7 C 71 % 1026,4 hPa 0,0 l/m 0 min 0 min 0,0 UV-I 0 W/m 23,2 km/h (4 Bft)
09.03.2014 03:58 8,9 C 6,7 C 71 % 1026,4 hPa 0,0 l/m 0 min 0 min 0,0 UV-I 0 W/m 20,6 km/h (4 Bft)
09.03.2014 04:00 8,9 C 6,7 C 71 % 1026,3 hPa 0,0 l/m 0 min 0 min 0,0 UV-I 0 W/m 20,6 km/h (4 Bft)
09.03.2014 04:02 8,9 C 6,7 C 71 % 1026,3 hPa 0,0 l/m 0 min 0 min 0,0 UV-I 0 W/m 12,9 km/h (3 Bft)
09.03.2014 04:04 8,8 C 6,7 C 71 % 1026,3 hPa 0,0 l/m 0 min 0 min 0,0 UV-I 0 W/m 20,6 km/h (4 Bft)
09.03.2014 04:06 8,8 C 6,7 C 71 % 1026,3 hPa 0,0 l/m 0 min 0 min 0,0 UV-I 0 W/m 28,3 km/h (4 Bft)
09.03.2014 04:08 8,9 C 6,7 C 71 % 1026,3 hPa 0,0 l/m 0 min 0 min 0,0 UV-I 0 W/m 23,2 km/h (4 Bft)
09.03.2014 04:10 8,8 C 6,7 C 71 % 1026,3 hPa 0,0 l/m 0 min 0 min 0,0 UV-I 0 W/m 28,3 km/h (4 Bft)
09.03.2014 04:12 8,9 C 6,7 C 71 % 1026,3 hPa 0,0 l/m 0 min 0 min 0,0 UV-I 0 W/m 25,7 km/h (4 Bft)
09.03.2014 04:14 8,9 C 6,7 C 71 % 1026,3 hPa 0,0 l/m 0 min 0 min 0,0 UV-I 0 W/m 23,2 km/h (4 Bft)
09.03.2014 04:16 8,9 C 6,7 C 71 % 1026,4 hPa 0,0 l/m 0 min 0 min 0,0 UV-I 0 W/m 23,2 km/h (4 Bft)
09.03.2014 04:18 8,8 C 6,7 C 71 % 1026,3 hPa 0,0 l/m 0 min 0 min 0,0 UV-I 0 W/m 36,0 km/h (5 Bft)
09.03.2014 04:20 8,8 C 6,7 C 71 % 1026,4 hPa 0,0 l/m 0 min 0 min 0,0 UV-I 0 W/m 33,5 km/h (5 Bft)
09.03.2014 04:22 8,8 C 6,7 C 71 % 1026,4 hPa 0,0 l/m 0 min 0 min 0,0 UV-I 0 W/m 20,6 km/h (4 Bft)
09.03.2014 04:24 8,8 C 7,2 C 71 % 1026,4 hPa 0,0 l/m 0 min 0 min 0,0 UV-I 0 W/m 38,6 km/h (5 Bft)
09.03.2014 04:26 8,8 C 6,7 C 71 % 1026,4 hPa 0,0 l/m 0 min 0 min 0,0 UV-I 0 W/m 25,7 km/h (4 Bft)
09.03.2014 04:28 8,8 C 6,7 C 71 % 1026,5 hPa 0,0 l/m 0 min 0 min 0,0 UV-I 0 W/m 25,7 km/h (4 Bft)
09.03.2014 04:30 8,8 C 6,7 C 71 % 1026,5 hPa 0,0 l/m 0 min 0 min 0,0 UV-I 0 W/m 30,9 km/h (5 Bft)
09.03.2014 04:32 8,8 C 6,7 C 71 % 1026,4 hPa 0,0 l/m 0 min 0 min 0,0 UV-I 0 W/m 20,6 km/h (4 Bft)
09.03.2014 04:34 8,8 C 6,7 C 71 % 1026,4 hPa 0,0 l/m 0 min 0 min 0,0 UV-I 0 W/m 30,9 km/h (5 Bft)
09.03.2014 04:36 8,8 C 6,7 C 71 % 1026,4 hPa 0,0 l/m 0 min 0 min 0,0 UV-I 0 W/m 33,5 km/h (5 Bft)
09.03.2014 04:38 8,8 C 6,7 C 71 % 1026,5 hPa 0,0 l/m 0 min 0 min 0,0 UV-I 0 W/m 23,2 km/h (4 Bft)
09.03.2014 04:40 8,8 C 6,7 C 71 % 1026,5 hPa 0,0 l/m 0 min 0 min 0,0 UV-I 0 W/m 25,7 km/h (4 Bft)
09.03.2014 04:42 8,8 C 6,7 C 71 % 1026,5 hPa 0,0 l/m 0 min 0 min 0,0 UV-I 0 W/m 25,7 km/h (4 Bft)
09.03.2014 04:44 8,8 C 6,7 C 71 % 1026,4 hPa 0,0 l/m 0 min 0 min 0,0 UV-I 0 W/m 25,7 km/h (4 Bft)
09.03.2014 04:46 8,8 C 6,7 C 71 % 1026,5 hPa 0,0 l/m 0 min 0 min 0,0 UV-I 0 W/m 36,0 km/h (5 Bft)
09.03.2014 04:48 8,8 C 7,2 C 71 % 1026,4 hPa 0,0 l/m 0 min 0 min 0,0 UV-I 0 W/m 23,2 km/h (4 Bft)
09.03.2014 04:50 8,8 C 7,2 C 71 % 1026,5 hPa 0,0 l/m 0 min 0 min 0,0 UV-I 0 W/m 25,7 km/h (4 Bft)
09.03.2014 04:52 8,9 C 7,2 C 71 % 1026,5 hPa 0,0 l/m 0 min 0 min 0,0 UV-I 0 W/m 28,3 km/h (4 Bft)
09.03.2014 04:54 8,9 C 7,2 C 71 % 1026,5 hPa 0,0 l/m 0 min 0 min 0,0 UV-I 0 W/m 28,3 km/h (4 Bft)
09.03.2014 04:56 8,9 C 7,2 C 71 % 1026,5 hPa 0,0 l/m 0 min 0 min 0,0 UV-I 0 W/m 25,7 km/h (4 Bft)
09.03.2014 04:58 8,9 C 7,2 C 71 % 1026,5 hPa 0,0 l/m 0 min 0 min 0,0 UV-I 0 W/m 28,3 km/h (4 Bft)
09.03.2014 05:00 8,9 C 7,2 C 71 % 1026,5 hPa 0,0 l/m 0 min 0 min 0,0 UV-I 0 W/m 28,3 km/h (4 Bft)
09.03.2014 05:02 8,9 C 7,2 C 71 % 1026,5 hPa 0,0 l/m 0 min 0 min 0,0 UV-I 0 W/m 23,2 km/h (4 Bft)
09.03.2014 05:04 8,9 C 7,2 C 71 % 1026,6 hPa 0,0 l/m 0 min 0 min 0,0 UV-I 0 W/m 38,6 km/h (5 Bft)
09.03.2014 05:06 8,9 C 7,2 C 71 % 1026,5 hPa 0,0 l/m 0 min 0 min 0,0 UV-I 0 W/m 18,0 km/h (3 Bft)
09.03.2014 05:08 8,9 C 7,2 C 71 % 1026,5 hPa 0,0 l/m 0 min 0 min 0,0 UV-I 0 W/m 28,3 km/h (4 Bft)
09.03.2014 05:10 8,9 C 7,2 C 71 % 1026,5 hPa 0,0 l/m 0 min 0 min 0,0 UV-I 0 W/m 36,0 km/h (5 Bft)
09.03.2014 05:12 8,9 C 7,2 C 71 % 1026,5 hPa 0,0 l/m 0 min 0 min 0,0 UV-I 0 W/m 33,5 km/h (5 Bft)
09.03.2014 05:14 8,9 C 6,7 C 71 % 1026,6 hPa 0,0 l/m 0 min 0 min 0,0 UV-I 0 W/m 28,3 km/h (4 Bft)
09.03.2014 05:16 8,9 C 6,7 C 71 % 1026,5 hPa 0,0 l/m 0 min 0 min 0,0 UV-I 0 W/m 33,5 km/h (5 Bft)
09.03.2014 05:18 8,9 C 6,7 C 71 % 1026,5 hPa 0,0 l/m 0 min 0 min 0,0 UV-I 0 W/m 28,3 km/h (4 Bft)
09.03.2014 05:20 8,8 C 6,7 C 71 % 1026,5 hPa 0,0 l/m 0 min 0 min 0,0 UV-I 0 W/m 23,2 km/h (4 Bft)
09.03.2014 05:22 8,8 C 6,7 C 72 % 1026,6 hPa 0,0 l/m 0 min 0 min 0,0 UV-I 0 W/m 15,4 km/h (3 Bft)
09.03.2014 05:24 8,7 C 6,7 C 72 % 1026,5 hPa 0,0 l/m 0 min 0 min 0,0 UV-I 0 W/m 23,2 km/h (4 Bft)
09.03.2014 05:26 8,7 C 6,7 C 72 % 1026,5 hPa 0,0 l/m 0 min 0 min 0,0 UV-I 0 W/m 18,0 km/h (3 Bft)
09.03.2014 05:28 8,7 C 6,7 C 72 % 1026,5 hPa 0,0 l/m 0 min 0 min 0,0 UV-I 0 W/m 15,4 km/h (3 Bft)
09.03.2014 05:30 8,7 C 6,7 C 72 % 1026,5 hPa 0,0 l/m 0 min 0 min 0,0 UV-I 0 W/m 25,7 km/h (4 Bft)
09.03.2014 05:32 8,7 C 6,7 C 72 % 1026,5 hPa 0,0 l/m 0 min 0 min 0,0 UV-I 0 W/m 23,2 km/h (4 Bft)
09.03.2014 05:34 8,6 C 6,7 C 72 % 1026,5 hPa 0,0 l/m 0 min 0 min 0,0 UV-I 0 W/m 20,6 km/h (4 Bft)
09.03.2014 05:36 8,6 C 6,7 C 72 % 1026,5 hPa 0,0 l/m 0 min 0 min 0,0 UV-I 0 W/m 30,9 km/h (5 Bft)
09.03.2014 05:38 8,7 C 6,7 C 72 % 1026,5 hPa 0,0 l/m 0 min 0 min 0,0 UV-I 0 W/m 28,3 km/h (4 Bft)
09.03.2014 05:40 8,7 C 6,7 C 72 % 1026,5 hPa 0,0 l/m 0 min 0 min 0,0 UV-I 0 W/m 28,3 km/h (4 Bft)
09.03.2014 05:42 8,7 C 6,7 C 71 % 1026,5 hPa 0,0 l/m 0 min 0 min 0,0 UV-I 0 W/m 46,3 km/h (6 Bft)
09.03.2014 05:44 8,7 C 6,7 C 71 % 1026,5 hPa 0,0 l/m 0 min 0 min 0,0 UV-I 0 W/m 25,7 km/h (4 Bft)
09.03.2014 05:46 8,7 C 6,7 C 71 % 1026,5 hPa 0,0 l/m 0 min 0 min 0,0 UV-I 0 W/m 25,7 km/h (4 Bft)
09.03.2014 05:48 8,7 C 6,7 C 71 % 1026,5 hPa 0,0 l/m 0 min 0 min 0,0 UV-I 0 W/m 36,0 km/h (5 Bft)
09.03.2014 05:50 8,7 C 6,7 C 71 % 1026,5 hPa 0,0 l/m 0 min 0 min 0,0 UV-I 0 W/m 25,7 km/h (4 Bft)
09.03.2014 05:52 8,7 C 6,7 C 71 % 1026,5 hPa 0,0 l/m 0 min 0 min 0,0 UV-I 0 W/m 20,6 km/h (4 Bft)
09.03.2014 05:54 8,7 C 6,7 C 71 % 1026,5 hPa 0,0 l/m 0 min 0 min 0,0 UV-I 0 W/m 23,2 km/h (4 Bft)
09.03.2014 05:56 8,7 C 6,7 C 71 % 1026,5 hPa 0,0 l/m 0 min 0 min 0,0 UV-I 0 W/m 36,0 km/h (5 Bft)
09.03.2014 05:58 8,6 C 6,7 C 71 % 1026,5 hPa 0,0 l/m 0 min 0 min 0,0 UV-I 0 W/m 25,7 km/h (4 Bft)
09.03.2014 06:00 8,7 C 6,7 C 71 % 1026,5 hPa 0,0 l/m 0 min 0 min 0,0 UV-I 0 W/m 25,7 km/h (4 Bft)
09.03.2014 06:02 8,6 C 6,7 C 71 % 1026,5 hPa 0,0 l/m 0 min 0 min 0,0 UV-I 0 W/m 20,6 km/h (4 Bft)
09.03.2014 06:04 8,6 C 6,7 C 71 % 1026,5 hPa 0,0 l/m 0 min 0 min 0,0 UV-I 0 W/m 25,7 km/h (4 Bft)
09.03.2014 06:06 8,5 C 6,7 C 71 % 1026,5 hPa 0,0 l/m 0 min 0 min 0,0 UV-I 0 W/m 28,3 km/h (4 Bft)
09.03.2014 06:08 8,5 C 6,7 C 71 % 1026,5 hPa 0,0 l/m 0 min 0 min 0,0 UV-I 0 W/m 20,6 km/h (4 Bft)
09.03.2014 06:10 8,4 C 6,7 C 71 % 1026,5 hPa 0,0 l/m 0 min 0 min 0,0 UV-I 0 W/m 25,7 km/h (4 Bft)
09.03.2014 06:12 8,4 C 6,7 C 71 % 1026,5 hPa 0,0 l/m 0 min 0 min 0,0 UV-I 0 W/m 33,5 km/h (5 Bft)
09.03.2014 06:14 8,4 C 6,7 C 71 % 1026,5 hPa 0,0 l/m 0 min 0 min 0,0 UV-I 0 W/m 20,6 km/h (4 Bft)
09.03.2014 06:16 8,4 C 6,7 C 71 % 1026,5 hPa 0,0 l/m 0 min 0 min 0,0 UV-I 0 W/m 18,0 km/h (3 Bft)
09.03.2014 06:18 8,4 C 6,7 C 71 % 1026,5 hPa 0,0 l/m 0 min 0 min 0,0 UV-I 0 W/m 30,9 km/h (5 Bft)
09.03.2014 06:20 8,4 C 6,7 C 71 % 1026,6 hPa 0,0 l/m 0 min 0 min 0,0 UV-I 0 W/m 20,6 km/h (4 Bft)
09.03.2014 06:22 8,3 C 6,7 C 71 % 1026,6 hPa 0,0 l/m 0 min 0 min 0,0 UV-I 0 W/m 30,9 km/h (5 Bft)
09.03.2014 06:24 8,3 C 6,7 C 71 % 1026,6 hPa 0,0 l/m 0 min 0 min 0,0 UV-I 0 W/m 33,5 km/h (5 Bft)
09.03.2014 06:26 8,3 C 6,7 C 71 % 1026,5 hPa 0,0 l/m 0 min 0 min 0,0 UV-I 0 W/m 20,6 km/h (4 Bft)
09.03.2014 06:28 8,4 C 6,7 C 71 % 1026,6 hPa 0,0 l/m 0 min 0 min 0,0 UV-I 0 W/m 30,9 km/h (5 Bft)
09.03.2014 06:30 8,4 C 6,7 C 71 % 1026,6 hPa 0,0 l/m 0 min 0 min 0,0 UV-I 0 W/m 36,0 km/h (5 Bft)
09.03.2014 06:32 8,4 C 6,7 C 71 % 1026,6 hPa 0,0 l/m 0 min 0 min 0,0 UV-I 0 W/m 33,5 km/h (5 Bft)
09.03.2014 06:34 8,4 C 6,7 C 70 % 1026,6 hPa 0,0 l/m 0 min 0 min 0,0 UV-I 0 W/m 25,7 km/h (4 Bft)
09.03.2014 06:36 8,4 C 6,7 C 70 % 1026,6 hPa 0,0 l/m 0 min 0 min 0,0 UV-I 0 W/m 30,9 km/h (5 Bft)
09.03.2014 06:38 8,4 C 6,7 C 70 % 1026,6 hPa 0,0 l/m 0 min 0 min 0,0 UV-I 0 W/m 33,5 km/h (5 Bft)
09.03.2014 06:40 8,4 C 6,1 C 71 % 1026,7 hPa 0,0 l/m 0 min 0 min 0,0 UV-I 0 W/m 33,5 km/h (5 Bft)
09.03.2014 06:42 8,3 C 6,1 C 71 % 1026,8 hPa 0,0 l/m 0 min 0 min 0,0 UV-I 0 W/m 23,2 km/h (4 Bft)
09.03.2014 06:44 8,3 C 6,1 C 71 % 1026,7 hPa 0,0 l/m 0 min 0 min 0,0 UV-I 0 W/m 23,2 km/h (4 Bft)
09.03.2014 06:46 8,2 C 6,1 C 71 % 1026,7 hPa 0,0 l/m 0 min 0 min 0,0 UV-I 0 W/m 25,7 km/h (4 Bft)
09.03.2014 06:48 8,2 C 6,1 C 71 % 1026,7 hPa 0,0 l/m 0 min 0 min 0,0 UV-I 0 W/m 28,3 km/h (4 Bft)
09.03.2014 06:50 8,2 C 6,1 C 71 % 1026,8 hPa 0,0 l/m 0 min 0 min 0,0 UV-I 0 W/m 23,2 km/h (4 Bft)
09.03.2014 06:52 8,2 C 6,1 C 71 % 1026,8 hPa 0,0 l/m 0 min 0 min 0,0 UV-I 0 W/m 36,0 km/h (5 Bft)
09.03.2014 06:54 8,2 C 6,1 C 71 % 1026,7 hPa 0,0 l/m 0 min 0 min 0,0 UV-I 0 W/m 20,6 km/h (4 Bft)
09.03.2014 06:56 8,2 C 6,1 C 71 % 1026,8 hPa 0,0 l/m 0 min 0 min 0,0 UV-I 0 W/m 25,7 km/h (4 Bft)
09.03.2014 06:58 8,2 C 6,1 C 71 % 1026,9 hPa 0,0 l/m 0 min 0 min 0,0 UV-I 0 W/m 36,0 km/h (5 Bft)
09.03.2014 07:00 8,2 C 6,1 C 70 % 1026,9 hPa 0,0 l/m 0 min 0 min 0,0 UV-I 5 W/m 36,0 km/h (5 Bft)
09.03.2014 07:02 8,2 C 6,7 C 70 % 1026,8 hPa 0,0 l/m 0 min 0 min 0,0 UV-I 5 W/m 33,5 km/h (5 Bft)
09.03.2014 07:04 8,2 C 6,7 C 70 % 1026,8 hPa 0,0 l/m 0 min 0 min 0,0 UV-I 5 W/m 33,5 km/h (5 Bft)
09.03.2014 07:06 8,3 C 6,7 C 70 % 1026,9 hPa 0,0 l/m 0 min 0 min 0,0 UV-I 7 W/m 33,5 km/h (5 Bft)
09.03.2014 07:08 8,3 C 6,7 C 70 % 1026,9 hPa 0,0 l/m 0 min 0 min 0,0 UV-I 7 W/m 28,3 km/h (4 Bft)
09.03.2014 07:10 8,2 C 6,1 C 70 % 1027,0 hPa 0,0 l/m 0 min 0 min 0,0 UV-I 9 W/m 33,5 km/h (5 Bft)
09.03.2014 07:12 8,2 C 6,1 C 70 % 1027,0 hPa 0,0 l/m 0 min 0 min 0,0 UV-I 9 W/m 30,9 km/h (5 Bft)
09.03.2014 07:14 8,3 C 6,7 C 70 % 1027,0 hPa 0,0 l/m 0 min 0 min 0,0 UV-I 11 W/m 41,2 km/h (6 Bft)
09.03.2014 07:16 8,3 C 6,7 C 70 % 1027,1 hPa 0,0 l/m 0 min 0 min 0,0 UV-I 12 W/m 38,6 km/h (5 Bft)
09.03.2014 07:18 8,3 C 6,1 C 70 % 1027,2 hPa 0,0 l/m 0 min 0 min 0,0 UV-I 12 W/m 28,3 km/h (4 Bft)
09.03.2014 07:20 8,3 C 6,1 C 70 % 1027,2 hPa 0,0 l/m 0 min 0 min 0,0 UV-I 14 W/m 23,2 km/h (4 Bft)
09.03.2014 07:22 8,3 C 6,7 C 70 % 1027,2 hPa 0,0 l/m 0 min 0 min 0,0 UV-I 14 W/m 28,3 km/h (4 Bft)
09.03.2014 07:24 8,3 C 6,7 C 70 % 1027,3 hPa 0,0 l/m 0 min 0 min 0,0 UV-I 16 W/m 28,3 km/h (4 Bft)
09.03.2014 07:26 8,3 C 6,7 C 70 % 1027,3 hPa 0,0 l/m 0 min 0 min 0,0 UV-I 18 W/m 20,6 km/h (4 Bft)
09.03.2014 07:28 8,3 C 6,7 C 70 % 1027,3 hPa 0,0 l/m 0 min 0 min 0,0 UV-I 18 W/m 23,2 km/h (4 Bft)
09.03.2014 07:30 8,3 C 6,7 C 70 % 1027,4 hPa 0,0 l/m 0 min 0 min 0,0 UV-I 19 W/m 18,0 km/h (3 Bft)
09.03.2014 07:32 8,3 C 6,7 C 70 % 1027,4 hPa 0,0 l/m 0 min 0 min 0,0 UV-I 21 W/m 33,5 km/h (5 Bft)
09.03.2014 07:34 8,4 C 6,7 C 69 % 1027,4 hPa 0,0 l/m 0 min 0 min 0,0 UV-I 21 W/m 28,3 km/h (4 Bft)
09.03.2014 07:36 8,4 C 6,7 C 69 % 1027,4 hPa 0,0 l/m 0 min 0 min 0,0 UV-I 23 W/m 20,6 km/h (4 Bft)
09.03.2014 07:38 8,4 C 6,7 C 69 % 1027,5 hPa 0,0 l/m 0 min 0 min 0,0 UV-I 23 W/m 28,3 km/h (4 Bft)
09.03.2014 07:40 8,5 C 6,7 C 69 % 1027,5 hPa 0,0 l/m 0 min 0 min 0,0 UV-I 25 W/m 28,3 km/h (4 Bft)
09.03.2014 07:42 8,5 C 6,7 C 69 % 1027,5 hPa 0,0 l/m 0 min 0 min 0,0 UV-I 26 W/m 25,7 km/h (4 Bft)
09.03.2014 07:44 8,5 C 6,7 C 69 % 1027,5 hPa 0,0 l/m 0 min 0 min 0,0 UV-I 37 W/m 33,5 km/h (5 Bft)
09.03.2014 07:46 8,6 C 6,7 C 69 % 1027,6 hPa 0,0 l/m 0 min 0 min 0,0 UV-I 37 W/m 28,3 km/h (4 Bft)
09.03.2014 07:48 8,6 C 6,7 C 68 % 1027,6 hPa 0,0 l/m 0 min 0 min 0,0 UV-I 33 W/m 36,0 km/h (5 Bft)
09.03.2014 07:50 8,6 C 6,7 C 68 % 1027,5 hPa 0,0 l/m 0 min 0 min 0,0 UV-I 26 W/m 36,0 km/h (5 Bft)
09.03.2014 07:52 8,7 C 6,7 C 68 % 1027,6 hPa 0,0 l/m 0 min 0 min 0,0 UV-I 28 W/m 28,3 km/h (4 Bft)
09.03.2014 07:54 8,7 C 6,7 C 68 % 1027,5 hPa 0,0 l/m 0 min 0 min 0,0 UV-I 42 W/m 25,7 km/h (4 Bft)
09.03.2014 07:56 8,7 C 6,7 C 68 % 1027,5 hPa 0,0 l/m 0 min 0 min 0,0 UV-I 44 W/m 25,7 km/h (4 Bft)
09.03.2014 07:58 8,7 C 6,7 C 68 % 1027,5 hPa 0,0 l/m 0 min 0 min 0,0 UV-I 47 W/m 41,2 km/h (6 Bft)
09.03.2014 08:00 8,7 C 6,7 C 68 % 1027,5 hPa 0,0 l/m 0 min 0 min 0,0 UV-I 54 W/m 25,7 km/h (4 Bft)
09.03.2014 08:02 8,7 C 6,7 C 68 % 1027,6 hPa 0,0 l/m 0 min 0 min 0,0 UV-I 58 W/m 28,3 km/h (4 Bft)
09.03.2014 08:04 8,7 C 6,7 C 68 % 1027,5 hPa 0,0 l/m 0 min 0 min 0,0 UV-I 63 W/m 30,9 km/h (5 Bft)
09.03.2014 08:06 8,7 C 6,7 C 68 % 1027,6 hPa 0,0 l/m 0 min 0 min 0,0 UV-I 46 W/m 25,7 km/h (4 Bft)
09.03.2014 08:08 8,7 C 6,7 C 68 % 1027,6 hPa 0,0 l/m 0 min 0 min 0,0 UV-I 54 W/m 25,7 km/h (4 Bft)
09.03.2014 08:10 8,7 C 6,7 C 68 % 1027,6 hPa 0,0 l/m 0 min 0 min 0,0 UV-I 76 W/m 36,0 km/h (5 Bft)
09.03.2014 08:12 8,7 C 6,7 C 68 % 1027,6 hPa 0,0 l/m 0 min 0 min 0,0 UV-I 84 W/m 30,9 km/h (5 Bft)
09.03.2014 08:14 8,7 C 7,2 C 68 % 1027,6 hPa 0,0 l/m 0 min 0 min 0,0 UV-I 91 W/m 36,0 km/h (5 Bft)
09.03.2014 08:16 8,7 C 7,2 C 68 % 1027,6 hPa 0,0 l/m 0 min 0 min 0,0 UV-I 98 W/m 36,0 km/h (5 Bft)
09.03.2014 08:18 8,7 C 7,2 C 68 % 1027,7 hPa 0,0 l/m 2 min 0 min 0,0 UV-I 105 W/m 36,0 km/h (5 Bft)
09.03.2014 08:20 8,7 C 7,2 C 68 % 1027,7 hPa 0,0 l/m 2 min 0 min 0,0 UV-I 109 W/m 33,5 km/h (5 Bft)
09.03.2014 08:22 8,7 C 7,2 C 68 % 1027,7 hPa 0,0 l/m 2 min 0 min 0,0 UV-I 114 W/m 41,2 km/h (6 Bft)
09.03.2014 08:24 8,8 C 7,2 C 68 % 1027,7 hPa 0,0 l/m 2 min 0 min 0,0 UV-I 123 W/m 23,2 km/h (4 Bft)
09.03.2014 08:26 8,8 C 7,2 C 68 % 1027,7 hPa 0,0 l/m 2 min 0 min 0,0 UV-I 130 W/m 23,2 km/h (4 Bft)
09.03.2014 08:28 8,8 C 7,2 C 68 % 1027,7 hPa 0,0 l/m 2 min 0 min 0,0 UV-I 134 W/m 36,0 km/h (5 Bft)
09.03.2014 08:30 8,8 C 7,2 C 68 % 1027,8 hPa 0,0 l/m 2 min 0 min 0,0 UV-I 142 W/m 46,3 km/h (6 Bft)
09.03.2014 08:32 8,9 C 7,2 C 68 % 1027,8 hPa 0,0 l/m 2 min 0 min 0,0 UV-I 148 W/m 33,5 km/h (5 Bft)
09.03.2014 08:34 8,9 C 7,2 C 68 % 1027,8 hPa 0,0 l/m 2 min 0 min 0,0 UV-I 151 W/m 25,7 km/h (4 Bft)
09.03.2014 08:36 8,9 C 7,2 C 68 % 1027,9 hPa 0,0 l/m 2 min 0 min 0,0 UV-I 156 W/m 15,4 km/h (3 Bft)
09.03.2014 08:38 9,0 C 7,2 C 68 % 1027,9 hPa 0,0 l/m 2 min 0 min 0,0 UV-I 162 W/m 28,3 km/h (4 Bft)
09.03.2014 08:40 9,1 C 7,2 C 67 % 1027,9 hPa 0,0 l/m 2 min 0 min 0,0 UV-I 169 W/m 33,5 km/h (5 Bft)
09.03.2014 08:42 9,1 C 7,2 C 67 % 1027,9 hPa 0,0 l/m 2 min 0 min 0,0 UV-I 179 W/m 25,7 km/h (4 Bft)
09.03.2014 08:44 9,2 C 7,2 C 67 % 1027,9 hPa 0,0 l/m 2 min 0 min 0,0 UV-I 186 W/m 23,2 km/h (4 Bft)
09.03.2014 08:46 9,2 C 7,2 C 67 % 1027,9 hPa 0,0 l/m 2 min 0 min 0,0 UV-I 197 W/m 25,7 km/h (4 Bft)
09.03.2014 08:48 9,3 C 7,2 C 67 % 1027,9 hPa 0,0 l/m 2 min 0 min 0,0 UV-I 200 W/m 28,3 km/h (4 Bft)
09.03.2014 08:50 9,3 C 7,8 C 67 % 1028,0 hPa 0,0 l/m 2 min 0 min 0,0 UV-I 204 W/m 38,6 km/h (5 Bft)
09.03.2014 08:52 9,4 C 7,8 C 67 % 1028,0 hPa 0,0 l/m 2 min 0 min 0,0 UV-I 209 W/m 30,9 km/h (5 Bft)
09.03.2014 08:54 9,4 C 7,8 C 66 % 1028,0 hPa 0,0 l/m 2 min 0 min 0,0 UV-I 213 W/m 25,7 km/h (4 Bft)
09.03.2014 08:56 9,6 C 7,8 C 66 % 1028,0 hPa 0,0 l/m 2 min 0 min 0,0 UV-I 218 W/m 36,0 km/h (5 Bft)
09.03.2014 08:58 9,6 C 7,8 C 66 % 1028,0 hPa 0,0 l/m 2 min 0 min 0,0 UV-I 236 W/m 33,5 km/h (5 Bft)
09.03.2014 09:00 9,7 C 7,8 C 65 % 1028,0 hPa 0,0 l/m 2 min 0 min 0,0 UV-I 241 W/m 36,0 km/h (5 Bft)
09.03.2014 09:02 9,8 C 7,8 C 66 % 1028,0 hPa 0,0 l/m 2 min 0 min 0,0 UV-I 239 W/m 25,7 km/h (4 Bft)
09.03.2014 09:04 9,8 C 7,8 C 65 % 1028,0 hPa 0,0 l/m 2 min 0 min 0,0 UV-I 248 W/m 36,0 km/h (5 Bft)
09.03.2014 09:06 9,9 C 8,3 C 65 % 1028,0 hPa 0,0 l/m 2 min 0 min 0,0 UV-I 250 W/m 38,6 km/h (5 Bft)
09.03.2014 09:08 10,1 C 8,3 C 65 % 1028,0 hPa 0,0 l/m 2 min 0 min 0,0 UV-I 255 W/m 38,6 km/h (5 Bft)
09.03.2014 09:10 10,1 C 8,3 C 65 % 1027,9 hPa 0,0 l/m 2 min 0 min 0,0 UV-I 267 W/m 23,2 km/h (4 Bft)
09.03.2014 09:12 10,2 C 8,3 C 65 % 1028,0 hPa 0,0 l/m 2 min 0 min 0,0 UV-I 272 W/m 25,7 km/h (4 Bft)
09.03.2014 09:14 10,3 C 8,3 C 65 % 1028,0 hPa 0,0 l/m 2 min 0 min 0,0 UV-I 276 W/m 25,7 km/h (4 Bft)
09.03.2014 09:16 10,4 C 8,3 C 64 % 1028,0 hPa 0,0 l/m 2 min 0 min 0,0 UV-I 281 W/m 28,3 km/h (4 Bft)
09.03.2014 09:18 10,4 C 8,3 C 64 % 1028,0 hPa 0,0 l/m 2 min 0 min 0,0 UV-I 288 W/m 20,6 km/h (4 Bft)
09.03.2014 09:20 10,6 C 8,3 C 64 % 1028,0 hPa 0,0 l/m 2 min 0 min 0,0 UV-I 292 W/m 28,3 km/h (4 Bft)
09.03.2014 09:22 10,7 C 8,3 C 63 % 1027,9 hPa 0,0 l/m 2 min 0 min 0,0 UV-I 299 W/m 25,7 km/h (4 Bft)
09.03.2014 09:24 10,7 C 8,9 C 63 % 1028,0 hPa 0,0 l/m 2 min 0 min 0,0 UV-I 299 W/m 33,5 km/h (5 Bft)
09.03.2014 09:26 10,8 C 8,9 C 63 % 1028,0 hPa 0,0 l/m 2 min 0 min 0,0 UV-I 297 W/m 23,2 km/h (4 Bft)
09.03.2014 09:28 10,9 C 8,9 C 63 % 1027,9 hPa 0,0 l/m 2 min 0 min 0,0 UV-I 295 W/m 23,2 km/h (4 Bft)
09.03.2014 09:30 11,0 C 8,9 C 63 % 1028,0 hPa 0,0 l/m 2 min 0 min 0,0 UV-I 302 W/m 25,7 km/h (4 Bft)
09.03.2014 09:32 11,1 C 8,9 C 62 % 1028,0 hPa 0,0 l/m 2 min 0 min 0,0 UV-I 306 W/m 28,3 km/h (4 Bft)
09.03.2014 09:34 11,1 C 8,9 C 62 % 1028,0 hPa 0,0 l/m 2 min 0 min 0,0 UV-I 313 W/m 33,5 km/h (5 Bft)
09.03.2014 09:36 11,2 C 8,9 C 62 % 1028,1 hPa 0,0 l/m 2 min 0 min 0,0 UV-I 322 W/m 20,6 km/h (4 Bft)
09.03.2014 09:38 11,3 C 8,9 C 62 % 1028,1 hPa 0,0 l/m 2 min 0 min 0,0 UV-I 325 W/m 23,2 km/h (4 Bft)
09.03.2014 09:40 11,4 C 8,9 C 61 % 1028,1 hPa 0,0 l/m 2 min 0 min 0,0 UV-I 327 W/m 33,5 km/h (5 Bft)
09.03.2014 09:42 11,5 C 9,4 C 61 % 1028,1 hPa 0,0 l/m 2 min 0 min 0,0 UV-I 330 W/m 41,2 km/h (6 Bft)
09.03.2014 09:44 11,6 C 9,4 C 61 % 1028,0 hPa 0,0 l/m 2 min 0 min 0,0 UV-I 330 W/m 25,7 km/h (4 Bft)
09.03.2014 09:46 11,6 C 9,4 C 61 % 1028,0 hPa 0,0 l/m 2 min 0 min 0,0 UV-I 323 W/m 25,7 km/h (4 Bft)
09.03.2014 09:48 11,7 C 9,4 C 61 % 1028,0 hPa 0,0 l/m 2 min 0 min 0,0 UV-I 329 W/m 23,2 km/h (4 Bft)
09.03.2014 09:50 11,8 C 9,4 C 60 % 1027,9 hPa 0,0 l/m 2 min 0 min 0,0 UV-I 334 W/m 23,2 km/h (4 Bft)
09.03.2014 09:52 11,9 C 9,4 C 61 % 1027,9 hPa 0,0 l/m 2 min 0 min 0,0 UV-I 345 W/m 23,2 km/h (4 Bft)
09.03.2014 09:54 12,0 C 10,0 C 60 % 1027,9 hPa 0,0 l/m 2 min 0 min 0,5 UV-I 353 W/m 23,2 km/h (4 Bft)
09.03.2014 09:56 12,1 C 10,0 C 59 % 1027,8 hPa 0,0 l/m 2 min 0 min 0,5 UV-I 362 W/m 33,5 km/h (5 Bft)
09.03.2014 09:58 12,2 C 10,0 C 58 % 1027,9 hPa 0,0 l/m 2 min 0 min 0,5 UV-I 362 W/m 36,0 km/h (5 Bft)
09.03.2014 10:00 12,3 C 10,0 C 58 % 1027,8 hPa 0,0 l/m 2 min 0 min 0,5 UV-I 360 W/m 25,7 km/h (4 Bft)
09.03.2014 10:02 12,4 C 10,0 C 58 % 1027,8 hPa 0,0 l/m 2 min 0 min 0,5 UV-I 359 W/m 28,3 km/h (4 Bft)
09.03.2014 10:04 12,5 C 10,6 C 58 % 1027,8 hPa 0,0 l/m 2 min 0 min 0,6 UV-I 374 W/m 25,7 km/h (4 Bft)
09.03.2014 10:06 12,6 C 10,6 C 57 % 1027,9 hPa 0,0 l/m 2 min 0 min 0,6 UV-I 388 W/m 25,7 km/h (4 Bft)
09.03.2014 10:08 12,7 C 10,6 C 57 % 1027,9 hPa 0,0 l/m 2 min 0 min 0,6 UV-I 397 W/m 20,6 km/h (4 Bft)
09.03.2014 10:10 12,8 C 10,6 C 57 % 1027,9 hPa 0,0 l/m 2 min 0 min 0,7 UV-I 399 W/m 43,8 km/h (6 Bft)
09.03.2014 10:12 12,9 C 11,1 C 57 % 1027,8 hPa 0,0 l/m 2 min 0 min 0,7 UV-I 404 W/m 25,7 km/h (4 Bft)
09.03.2014 10:14 13,1 C 11,1 C 56 % 1027,8 hPa 0,0 l/m 2 min 0 min 0,7 UV-I 411 W/m 30,9 km/h (5 Bft)
09.03.2014 10:16 13,2 C 11,1 C 56 % 1027,9 hPa 0,0 l/m 2 min 0 min 0,7 UV-I 415 W/m 33,5 km/h (5 Bft)
09.03.2014 10:18 13,2 C 11,1 C 55 % 1027,8 hPa 0,0 l/m 2 min 0 min 0,8 UV-I 417 W/m 28,3 km/h (4 Bft)
09.03.2014 10:20 13,3 C 11,7 C 56 % 1027,8 hPa 0,0 l/m 2 min 0 min 0,8 UV-I 420 W/m 23,2 km/h (4 Bft)
09.03.2014 10:22 13,5 C 11,7 C 56 % 1027,8 hPa 0,0 l/m 2 min 0 min 0,8 UV-I 424 W/m 23,2 km/h (4 Bft)
09.03.2014 10:24 13,6 C 11,7 C 54 % 1027,9 hPa 0,0 l/m 2 min 0 min 0,8 UV-I 429 W/m 28,3 km/h (4 Bft)
09.03.2014 10:26 13,7 C 11,7 C 54 % 1027,9 hPa 0,0 l/m 2 min 0 min 0,8 UV-I 431 W/m 30,9 km/h (5 Bft)
09.03.2014 10:28 13,7 C 11,7 C 54 % 1027,9 hPa 0,0 l/m 2 min 0 min 0,9 UV-I 434 W/m 38,6 km/h (5 Bft)
09.03.2014 10:30 13,8 C 11,7 C 54 % 1027,9 hPa 0,0 l/m 2 min 0 min 0,9 UV-I 436 W/m 25,7 km/h (4 Bft)
09.03.2014 10:32 13,9 C 11,7 C 54 % 1027,9 hPa 0,0 l/m 2 min 0 min 0,9 UV-I 441 W/m 25,7 km/h (4 Bft)
09.03.2014 10:34 13,9 C 11,7 C 53 % 1027,9 hPa 0,0 l/m 2 min 0 min 0,9 UV-I 443 W/m 41,2 km/h (6 Bft)
09.03.2014 10:36 13,9 C 12,2 C 52 % 1027,9 hPa 0,0 l/m 2 min 0 min 0,9 UV-I 446 W/m 25,7 km/h (4 Bft)
09.03.2014 10:38 14,0 C 12,2 C 52 % 1027,9 hPa 0,0 l/m 2 min 0 min 1,0 UV-I 452 W/m 28,3 km/h (4 Bft)
09.03.2014 10:40 14,0 C 12,2 C 52 % 1027,9 hPa 0,0 l/m 2 min 0 min 1,0 UV-I 452 W/m 38,6 km/h (5 Bft)
09.03.2014 10:42 14,2 C 12,2 C 53 % 1027,9 hPa 0,0 l/m 2 min 0 min 1,0 UV-I 455 W/m 20,6 km/h (4 Bft)
09.03.2014 10:44 14,2 C 12,2 C 53 % 1027,9 hPa 0,0 l/m 2 min 0 min 1,0 UV-I 459 W/m 25,7 km/h (4 Bft)
09.03.2014 10:46 14,3 C 12,2 C 53 % 1027,9 hPa 0,0 l/m 2 min 0 min 1,1 UV-I 462 W/m 23,2 km/h (4 Bft)
09.03.2014 10:48 14,3 C 12,2 C 52 % 1027,9 hPa 0,0 l/m 2 min 0 min 1,1 UV-I 466 W/m 20,6 km/h (4 Bft)
09.03.2014 10:50 14,5 C 12,2 C 52 % 1027,9 hPa 0,0 l/m 2 min 0 min 1,1 UV-I 468 W/m 25,7 km/h (4 Bft)
09.03.2014 10:52 14,5 C 12,8 C 51 % 1027,9 hPa 0,0 l/m 2 min 0 min 1,1 UV-I 468 W/m 30,9 km/h (5 Bft)
09.03.2014 10:54 14,6 C 12,8 C 52 % 1027,9 hPa 0,0 l/m 2 min 0 min 1,1 UV-I 473 W/m 23,2 km/h (4 Bft)
09.03.2014 10:56 14,7 C 12,8 C 51 % 1028,0 hPa 0,0 l/m 2 min 0 min 1,1 UV-I 473 W/m 18,0 km/h (3 Bft)
09.03.2014 10:58 14,8 C 12,8 C 52 % 1028,0 hPa 0,0 l/m 2 min 0 min 1,2 UV-I 476 W/m 20,6 km/h (4 Bft)
09.03.2014 11:00 14,8 C 12,8 C 51 % 1028,0 hPa 0,0 l/m 2 min 0 min 1,2 UV-I 478 W/m 30,9 km/h (5 Bft)
09.03.2014 11:02 14,9 C 12,8 C 51 % 1028,1 hPa 0,0 l/m 2 min 0 min 1,2 UV-I 483 W/m 28,3 km/h (4 Bft)
09.03.2014 11:04 14,9 C 12,8 C 51 % 1028,1 hPa 0,0 l/m 2 min 0 min 1,2 UV-I 483 W/m 23,2 km/h (4 Bft)
09.03.2014 11:06 15,0 C 12,8 C 52 % 1028,1 hPa 0,0 l/m 2 min 0 min 1,2 UV-I 485 W/m 18,0 km/h (3 Bft)
09.03.2014 11:08 15,2 C 13,3 C 50 % 1028,2 hPa 0,0 l/m 2 min 0 min 1,3 UV-I 489 W/m 30,9 km/h (5 Bft)
09.03.2014 11:10 15,2 C 13,3 C 50 % 1028,1 hPa 0,0 l/m 2 min 0 min 1,3 UV-I 490 W/m 20,6 km/h (4 Bft)
09.03.2014 11:12 15,3 C 13,3 C 51 % 1028,2 hPa 0,0 l/m 2 min 0 min 1,3 UV-I 496 W/m 15,4 km/h (3 Bft)
09.03.2014 11:14 15,5 C 13,3 C 50 % 1028,1 hPa 0,0 l/m 2 min 0 min 1,3 UV-I 497 W/m 28,3 km/h (4 Bft)
09.03.2014 11:16 15,6 C 13,3 C 51 % 1028,1 hPa 0,0 l/m 2 min 0 min 1,3 UV-I 499 W/m 23,2 km/h (4 Bft)
09.03.2014 11:18 15,7 C 13,3 C 50 % 1028,0 hPa 0,0 l/m 2 min 0 min 1,3 UV-I 503 W/m 20,6 km/h (4 Bft)
09.03.2014 11:20 15,7 C 13,9 C 49 % 1028,0 hPa 0,0 l/m 2 min 0 min 1,4 UV-I 504 W/m 18,0 km/h (3 Bft)
09.03.2014 11:22 15,7 C 13,9 C 48 % 1028,1 hPa 0,0 l/m 2 min 0 min 1,4 UV-I 510 W/m 25,7 km/h (4 Bft)
09.03.2014 11:24 15,8 C 13,9 C 49 % 1028,0 hPa 0,0 l/m 2 min 0 min 1,4 UV-I 510 W/m 20,6 km/h (4 Bft)
09.03.2014 11:26 15,9 C 13,9 C 49 % 1028,1 hPa 0,0 l/m 2 min 0 min 1,4 UV-I 513 W/m 25,7 km/h (4 Bft)
09.03.2014 11:28 16,0 C 13,9 C 49 % 1028,0 hPa 0,0 l/m 2 min 0 min 1,4 UV-I 513 W/m 20,6 km/h (4 Bft)
09.03.2014 11:30 16,0 C 13,9 C 47 % 1028,1 hPa 0,0 l/m 2 min 0 min 1,4 UV-I 515 W/m 36,0 km/h (5 Bft)
09.03.2014 11:32 15,9 C 13,9 C 47 % 1028,2 hPa 0,0 l/m 2 min 0 min 1,5 UV-I 519 W/m 28,3 km/h (4 Bft)
09.03.2014 11:34 15,9 C 13,9 C 47 % 1028,1 hPa 0,0 l/m 2 min 0 min 1,5 UV-I 520 W/m 18,0 km/h (3 Bft)
09.03.2014 11:36 16,1 C 13,9 C 47 % 1028,0 hPa 0,0 l/m 2 min 0 min 1,5 UV-I 524 W/m 33,5 km/h (5 Bft)
09.03.2014 11:38 16,1 C 13,9 C 47 % 1028,0 hPa 0,0 l/m 2 min 0 min 1,5 UV-I 526 W/m 28,3 km/h (4 Bft)
09.03.2014 11:40 16,1 C 14,4 C 48 % 1028,1 hPa 0,0 l/m 2 min 0 min 1,5 UV-I 526 W/m 23,2 km/h (4 Bft)
09.03.2014 11:42 16,3 C 14,4 C 48 % 1028,1 hPa 0,0 l/m 2 min 0 min 1,5 UV-I 529 W/m 28,3 km/h (4 Bft)
09.03.2014 11:44 16,3 C 14,4 C 46 % 1028,1 hPa 0,0 l/m 2 min 0 min 1,5 UV-I 533 W/m 23,2 km/h (4 Bft)
09.03.2014 11:46 16,4 C 14,4 C 46 % 1028,1 hPa 0,0 l/m 2 min 0 min 1,5 UV-I 533 W/m 18,0 km/h (3 Bft)
09.03.2014 11:48 16,5 C 14,4 C 47 % 1028,1 hPa 0,0 l/m 2 min 0 min 1,5 UV-I 533 W/m 20,6 km/h (4 Bft)
09.03.2014 11:50 16,6 C 14,4 C 46 % 1028,0 hPa 0,0 l/m 2 min 0 min 1,3 UV-I 536 W/m 25,7 km/h (4 Bft)
09.03.2014 11:52 16,6 C 14,4 C 45 % 1028,1 hPa 0,0 l/m 2 min 0 min 1,2 UV-I 536 W/m 28,3 km/h (4 Bft)
09.03.2014 11:54 16,6 C 14,4 C 45 % 1028,1 hPa 0,0 l/m 2 min 0 min 1,1 UV-I 536 W/m 28,3 km/h (4 Bft)
09.03.2014 11:56 16,7 C 14,4 C 45 % 1028,1 hPa 0,0 l/m 2 min 0 min 1,0 UV-I 540 W/m 23,2 km/h (4 Bft)
09.03.2014 11:58 16,7 C 14,4 C 46 % 1028,1 hPa 0,0 l/m 2 min 0 min 0,9 UV-I 540 W/m 25,7 km/h (4 Bft)
09.03.2014 12:00 16,8 C 15,0 C 46 % 1028,1 hPa 0,0 l/m 2 min 0 min 0,9 UV-I 545 W/m 20,6 km/h (4 Bft)
09.03.2014 12:02 16,9 C 15,0 C 45 % 1028,1 hPa 0,0 l/m 2 min 0 min 0,8 UV-I 545 W/m 25,7 km/h (4 Bft)
09.03.2014 12:04 17,1 C 15,0 C 46 % 1028,1 hPa 0,0 l/m 2 min 0 min 0,8 UV-I 545 W/m 25,7 km/h (4 Bft)
09.03.2014 12:06 17,2 C 15,0 C 45 % 1028,2 hPa 0,0 l/m 2 min 0 min 0,8 UV-I 541 W/m 28,3 km/h (4 Bft)
09.03.2014 12:08 17,2 C 15,0 C 45 % 1028,1 hPa 0,0 l/m 2 min 0 min 0,8 UV-I 545 W/m 18,0 km/h (3 Bft)
09.03.2014 12:10 17,2 C 15,0 C 44 % 1028,1 hPa 0,0 l/m 2 min 0 min 0,8 UV-I 543 W/m 28,3 km/h (4 Bft)
09.03.2014 12:12 17,3 C 15,0 C 45 % 1028,3 hPa 0,0 l/m 2 min 0 min 0,8 UV-I 547 W/m 23,2 km/h (4 Bft)
09.03.2014 12:14 17,3 C 15,0 C 44 % 1028,2 hPa 0,0 l/m 2 min 0 min 0,8 UV-I 548 W/m 12,9 km/h (3 Bft)
09.03.2014 12:16 17,4 C 15,0 C 43 % 1028,2 hPa 0,0 l/m 2 min 0 min 0,8 UV-I 548 W/m 28,3 km/h (4 Bft)
09.03.2014 12:18 17,4 C 15,0 C 43 % 1028,1 hPa 0,0 l/m 2 min 0 min 0,8 UV-I 548 W/m 30,9 km/h (5 Bft)
09.03.2014 12:20 17,4 C 15,0 C 43 % 1028,1 hPa 0,0 l/m 2 min 0 min 0,8 UV-I 550 W/m 25,7 km/h (4 Bft)
09.03.2014 12:22 17,5 C 15,0 C 44 % 1028,2 hPa 0,0 l/m 2 min 0 min 0,9 UV-I 554 W/m 20,6 km/h (4 Bft)
09.03.2014 12:24 17,6 C 15,6 C 44 % 1028,1 hPa 0,0 l/m 2 min 0 min 0,9 UV-I 555 W/m 12,9 km/h (3 Bft)
09.03.2014 12:26 17,9 C 15,6 C 45 % 1028,0 hPa 0,0 l/m 2 min 0 min 0,9 UV-I 555 W/m 23,2 km/h (4 Bft)
09.03.2014 12:28 18,0 C 15,6 C 44 % 1028,0 hPa 0,0 l/m 2 min 0 min 0,9 UV-I 555 W/m 20,6 km/h (4 Bft)
09.03.2014 12:30 18,1 C 15,6 C 43 % 1028,0 hPa 0,0 l/m 2 min 0 min 0,9 UV-I 559 W/m 12,9 km/h (3 Bft)
09.03.2014 12:32 18,2 C 15,6 C 45 % 1028,0 hPa 0,0 l/m 2 min 0 min 0,9 UV-I 559 W/m 15,4 km/h (3 Bft)
09.03.2014 12:34 18,3 C 15,6 C 43 % 1028,0 hPa 0,0 l/m 2 min 0 min 0,9 UV-I 559 W/m 15,4 km/h (3 Bft)
09.03.2014 12:36 18,4 C 15,6 C 42 % 1028,0 hPa 0,0 l/m 2 min 0 min 0,9 UV-I 555 W/m 15,4 km/h (3 Bft)
09.03.2014 12:38 18,4 C 15,6 C 42 % 1028,0 hPa 0,0 l/m 2 min 0 min 1,0 UV-I 559 W/m 10,3 km/h (2 Bft)
09.03.2014 12:40 18,4 C 15,6 C 44 % 1028,0 hPa 0,0 l/m 2 min 0 min 1,1 UV-I 559 W/m 15,4 km/h (3 Bft)
09.03.2014 12:42 18,3 C 15,6 C 41 % 1028,0 hPa 0,0 l/m 2 min 0 min 1,2 UV-I 561 W/m 15,4 km/h (3 Bft)
09.03.2014 12:44 18,3 C 16,1 C 44 % 1028,0 hPa 0,0 l/m 2 min 0 min 1,3 UV-I 559 W/m 15,4 km/h (3 Bft)
09.03.2014 12:46 18,4 C 15,6 C 42 % 1028,0 hPa 0,0 l/m 2 min 0 min 1,5 UV-I 561 W/m 12,9 km/h (3 Bft)
09.03.2014 12:48 18,4 C 16,1 C 41 % 1028,0 hPa 0,0 l/m 2 min 0 min 1,6 UV-I 559 W/m 10,3 km/h (2 Bft)
09.03.2014 12:50 18,4 C 16,1 C 42 % 1028,0 hPa 0,0 l/m 2 min 0 min 1,7 UV-I 555 W/m 15,4 km/h (3 Bft)
09.03.2014 12:52 18,4 C 16,1 C 41 % 1028,0 hPa 0,0 l/m 2 min 0 min 1,8 UV-I 561 W/m 15,4 km/h (3 Bft)
09.03.2014 12:54 18,4 C 16,1 C 41 % 1028,0 hPa 0,0 l/m 2 min 0 min 1,8 UV-I 561 W/m 18,0 km/h (3 Bft)
09.03.2014 12:56 18,4 C 16,1 C 41 % 1028,0 hPa 0,0 l/m 2 min 0 min 1,8 UV-I 563 W/m 15,4 km/h (3 Bft)
09.03.2014 12:58 18,6 C 16,1 C 42 % 1028,0 hPa 0,0 l/m 2 min 0 min 1,8 UV-I 563 W/m 15,4 km/h (3 Bft)
09.03.2014 13:00 18,8 C 16,1 C 42 % 1028,0 hPa 0,0 l/m 2 min 0 min 1,8 UV-I 557 W/m 10,3 km/h (2 Bft)
09.03.2014 13:02 18,9 C 16,1 C 42 % 1028,0 hPa 0,0 l/m 2 min 0 min 1,8 UV-I 555 W/m 10,3 km/h (2 Bft)
09.03.2014 13:04 19,2 C 16,1 C 41 % 1028,0 hPa 0,0 l/m 2 min 0 min 1,8 UV-I 547 W/m 15,4 km/h (3 Bft)
09.03.2014 13:06 19,1 C 16,1 C 40 % 1028,0 hPa 0,0 l/m 2 min 0 min 1,8 UV-I 547 W/m 15,4 km/h (3 Bft)
09.03.2014 13:08 18,9 C 16,1 C 41 % 1027,9 hPa 0,0 l/m 2 min 0 min 1,8 UV-I 547 W/m 12,9 km/h (3 Bft)
09.03.2014 13:10 18,9 C 16,1 C 44 % 1028,0 hPa 0,0 l/m 2 min 0 min 1,8 UV-I 543 W/m 10,3 km/h (2 Bft)
09.03.2014 13:12 19,1 C 16,1 C 41 % 1027,9 hPa 0,0 l/m 2 min 0 min 1,8 UV-I 543 W/m 15,4 km/h (3 Bft)
09.03.2014 13:14 19,1 C 16,1 C 41 % 1027,9 hPa 0,0 l/m 2 min 0 min 1,8 UV-I 541 W/m 12,9 km/h (3 Bft)
09.03.2014 13:16 19,1 C 16,1 C 42 % 1027,8 hPa 0,0 l/m 2 min 0 min 1,8 UV-I 541 W/m 10,3 km/h (2 Bft)
09.03.2014 13:18 19,2 C 16,1 C 41 % 1027,7 hPa 0,0 l/m 2 min 0 min 1,8 UV-I 545 W/m 12,9 km/h (3 Bft)
09.03.2014 13:20 19,3 C 16,7 C 40 % 1027,7 hPa 0,0 l/m 2 min 0 min 1,8 UV-I 540 W/m 18,0 km/h (3 Bft)
09.03.2014 13:22 19,3 C 16,7 C 41 % 1027,7 hPa 0,0 l/m 2 min 0 min 1,8 UV-I 543 W/m 12,9 km/h (3 Bft)
09.03.2014 13:24 19,4 C 16,7 C 41 % 1027,6 hPa 0,0 l/m 2 min 0 min 1,8 UV-I 548 W/m 12,9 km/h (3 Bft)
09.03.2014 13:26 19,5 C 16,7 C 40 % 1027,6 hPa 0,0 l/m 2 min 0 min 1,8 UV-I 548 W/m 18,0 km/h (3 Bft)
09.03.2014 13:28 19,5 C 16,7 C 40 % 1027,6 hPa 0,0 l/m 2 min 0 min 1,8 UV-I 548 W/m 10,3 km/h (2 Bft)
09.03.2014 13:30 19,6 C 16,7 C 42 % 1027,6 hPa 0,0 l/m 2 min 0 min 1,7 UV-I 548 W/m 15,4 km/h (3 Bft)
09.03.2014 13:32 19,6 C 16,7 C 42 % 1027,6 hPa 0,0 l/m 2 min 0 min 1,7 UV-I 545 W/m 12,9 km/h (3 Bft)
09.03.2014 13:34 19,7 C 16,7 C 41 % 1027,5 hPa 0,0 l/m 2 min 0 min 1,7 UV-I 540 W/m 15,4 km/h (3 Bft)
09.03.2014 13:36 19,6 C 16,7 C 41 % 1027,5 hPa 0,0 l/m 2 min 0 min 1,7 UV-I 533 W/m 10,3 km/h (2 Bft)
09.03.2014 13:38 19,8 C 16,7 C 41 % 1027,5 hPa 0,0 l/m 2 min 0 min 1,7 UV-I 527 W/m 12,9 km/h (3 Bft)
09.03.2014 13:40 19,8 C 16,7 C 42 % 1027,5 hPa 0,0 l/m 2 min 0 min 1,6 UV-I 515 W/m 2,6 km/h (1 Bft)
09.03.2014 13:42 19,8 C 16,7 C 40 % 1027,4 hPa 0,0 l/m 2 min 0 min 1,7 UV-I 534 W/m 10,3 km/h (2 Bft)
09.03.2014 13:44 19,9 C 16,7 C 41 % 1027,4 hPa 0,0 l/m 2 min 0 min 1,7 UV-I 536 W/m 10,3 km/h (2 Bft)
09.03.2014 13:46 20,0 C 16,7 C 40 % 1027,4 hPa 0,0 l/m 2 min 0 min 1,7 UV-I 529 W/m 15,4 km/h (3 Bft)
09.03.2014 13:48 19,8 C 16,7 C 40 % 1027,4 hPa 0,0 l/m 2 min 0 min 1,6 UV-I 524 W/m 5,1 km/h (1 Bft)
09.03.2014 13:50 19,8 C 16,7 C 40 % 1027,4 hPa 0,0 l/m 2 min 0 min 1,6 UV-I 526 W/m 12,9 km/h (3 Bft)
09.03.2014 13:52 19,8 C 16,7 C 40 % 1027,4 hPa 0,0 l/m 2 min 0 min 1,6 UV-I 524 W/m 12,9 km/h (3 Bft)
09.03.2014 13:54 19,9 C 16,7 C 40 % 1027,4 hPa 0,0 l/m 2 min 0 min 1,6 UV-I 524 W/m 2,6 km/h (1 Bft)
09.03.2014 13:56 20,1 C 17,2 C 40 % 1027,4 hPa 0,0 l/m 2 min 0 min 1,6 UV-I 522 W/m 10,3 km/h (2 Bft)
09.03.2014 13:58 20,2 C 17,2 C 42 % 1027,4 hPa 0,0 l/m 2 min 0 min 1,5 UV-I 519 W/m 12,9 km/h (3 Bft)
09.03.2014 14:00 20,3 C 17,2 C 40 % 1027,4 hPa 0,0 l/m 2 min 0 min 1,5 UV-I 519 W/m 2,6 km/h (1 Bft)
09.03.2014 14:02 20,3 C 17,2 C 40 % 1027,4 hPa 0,0 l/m 2 min 0 min 1,5 UV-I 515 W/m 18,0 km/h (3 Bft)
09.03.2014 14:04 20,2 C 17,2 C 40 % 1027,4 hPa 0,0 l/m 2 min 0 min 1,5 UV-I 513 W/m 18,0 km/h (3 Bft)
09.03.2014 14:06 20,3 C 17,2 C 41 % 1027,3 hPa 0,0 l/m 2 min 0 min 1,5 UV-I 513 W/m 15,4 km/h (3 Bft)
09.03.2014 14:08 20,3 C 17,2 C 40 % 1027,3 hPa 0,0 l/m 2 min 0 min 1,5 UV-I 508 W/m 12,9 km/h (3 Bft)
09.03.2014 14:10 20,4 C 17,2 C 43 % 1027,3 hPa 0,0 l/m 2 min 0 min 1,5 UV-I 508 W/m 2,6 km/h (1 Bft)
09.03.2014 14:12 20,4 C 17,2 C 40 % 1027,2 hPa 0,0 l/m 2 min 0 min 1,4 UV-I 508 W/m 7,7 km/h (2 Bft)
09.03.2014 14:14 20,4 C 17,2 C 40 % 1027,2 hPa 0,0 l/m 2 min 0 min 1,4 UV-I 504 W/m 12,9 km/h (3 Bft)
09.03.2014 14:16 20,3 C 17,2 C 39 % 1027,2 hPa 0,0 l/m 2 min 0 min 1,4 UV-I 501 W/m 7,7 km/h (2 Bft)
09.03.2014 14:18 20,3 C 17,2 C 41 % 1027,1 hPa 0,0 l/m 2 min 0 min 1,4 UV-I 499 W/m 12,9 km/h (3 Bft)
09.03.2014 14:20 20,4 C 17,2 C 41 % 1027,2 hPa 0,0 l/m 2 min 0 min 1,4 UV-I 496 W/m 2,6 km/h (1 Bft)
09.03.2014 14:22 20,4 C 17,2 C 40 % 1027,2 hPa 0,0 l/m 2 min 0 min 1,3 UV-I 490 W/m 20,6 km/h (4 Bft)
09.03.2014 14:24 20,4 C 17,2 C 39 % 1027,2 hPa 0,0 l/m 2 min 0 min 1,3 UV-I 490 W/m 18,0 km/h (3 Bft)
09.03.2014 14:26 20,4 C 17,2 C 39 % 1027,2 hPa 0,0 l/m 2 min 0 min 1,3 UV-I 489 W/m 12,9 km/h (3 Bft)
09.03.2014 14:28 20,3 C 17,2 C 39 % 1027,2 hPa 0,0 l/m 2 min 0 min 1,3 UV-I 489 W/m 15,4 km/h (3 Bft)
09.03.2014 14:30 20,3 C 17,2 C 39 % 1027,2 hPa 0,0 l/m 2 min 0 min 1,3 UV-I 485 W/m 10,3 km/h (2 Bft)
09.03.2014 14:32 20,4 C 17,8 C 39 % 1027,1 hPa 0,0 l/m 2 min 0 min 1,3 UV-I 478 W/m 5,1 km/h (1 Bft)
09.03.2014 14:34 20,5 C 17,8 C 39 % 1027,1 hPa 0,0 l/m 2 min 0 min 1,3 UV-I 475 W/m 15,4 km/h (3 Bft)
09.03.2014 14:36 20,4 C 17,8 C 39 % 1027,1 hPa 0,0 l/m 2 min 0 min 1,2 UV-I 475 W/m 10,3 km/h (2 Bft)
09.03.2014 14:38 20,6 C 17,8 C 40 % 1027,2 hPa 0,0 l/m 2 min 0 min 1,2 UV-I 471 W/m 15,4 km/h (3 Bft)
09.03.2014 14:40 20,6 C 17,8 C 39 % 1027,1 hPa 0,0 l/m 2 min 0 min 1,2 UV-I 464 W/m 12,9 km/h (3 Bft)
09.03.2014 14:42 20,6 C 17,8 C 38 % 1027,1 hPa 0,0 l/m 2 min 0 min 1,2 UV-I 461 W/m 12,9 km/h (3 Bft)
09.03.2014 14:44 20,6 C 17,8 C 38 % 1027,1 hPa 0,0 l/m 2 min 0 min 1,2 UV-I 457 W/m 18,0 km/h (3 Bft)
09.03.2014 14:46 20,4 C 17,8 C 39 % 1026,9 hPa 0,0 l/m 2 min 0 min 1,1 UV-I 457 W/m 12,9 km/h (3 Bft)
09.03.2014 14:48 20,4 C 17,8 C 39 % 1026,9 hPa 0,0 l/m 2 min 0 min 1,1 UV-I 459 W/m 20,6 km/h (4 Bft)
09.03.2014 14:50 20,5 C 17,8 C 39 % 1027,0 hPa 0,0 l/m 2 min 0 min 1,1 UV-I 459 W/m 20,6 km/h (4 Bft)
09.03.2014 14:52 20,6 C 17,8 C 39 % 1026,9 hPa 0,0 l/m 2 min 0 min 1,1 UV-I 459 W/m 12,9 km/h (3 Bft)
09.03.2014 14:54 20,7 C 17,8 C 39 % 1026,8 hPa 0,0 l/m 2 min 0 min 1,1 UV-I 455 W/m 12,9 km/h (3 Bft)
09.03.2014 14:56 20,8 C 17,8 C 39 % 1026,8 hPa 0,0 l/m 2 min 0 min 1,1 UV-I 452 W/m 15,4 km/h (3 Bft)
09.03.2014 14:58 20,8 C 17,8 C 39 % 1026,8 hPa 0,0 l/m 2 min 0 min 1,0 UV-I 452 W/m 12,9 km/h (3 Bft)
09.03.2014 15:00 20,8 C 17,8 C 39 % 1026,8 hPa 0,0 l/m 2 min 0 min 1,0 UV-I 448 W/m 12,9 km/h (3 Bft)
09.03.2014 15:02 20,7 C 17,8 C 39 % 1026,8 hPa 0,0 l/m 2 min 0 min 1,0 UV-I 445 W/m 18,0 km/h (3 Bft)
09.03.2014 15:04 20,8 C 17,8 C 39 % 1026,8 hPa 0,0 l/m 2 min 0 min 1,0 UV-I 441 W/m 12,9 km/h (3 Bft)
09.03.2014 15:06 20,8 C 17,8 C 39 % 1026,8 hPa 0,0 l/m 2 min 0 min 1,0 UV-I 439 W/m 23,2 km/h (4 Bft)
09.03.2014 15:08 20,8 C 17,8 C 39 % 1026,7 hPa 0,0 l/m 2 min 0 min 0,9 UV-I 431 W/m 18,0 km/h (3 Bft)
09.03.2014 15:10 20,8 C 17,8 C 39 % 1026,7 hPa 0,0 l/m 2 min 0 min 0,9 UV-I 429 W/m 15,4 km/h (3 Bft)
09.03.2014 15:12 20,7 C 17,8 C 40 % 1026,7 hPa 0,0 l/m 2 min 0 min 0,9 UV-I 427 W/m 20,6 km/h (4 Bft)
09.03.2014 15:14 20,7 C 17,8 C 38 % 1026,7 hPa 0,0 l/m 2 min 0 min 0,9 UV-I 422 W/m 12,9 km/h (3 Bft)
09.03.2014 15:16 20,7 C 17,8 C 38 % 1026,7 hPa 0,0 l/m 2 min 0 min 0,8 UV-I 418 W/m 10,3 km/h (2 Bft)
09.03.2014 15:18 20,7 C 17,8 C 39 % 1026,8 hPa 0,0 l/m 2 min 0 min 0,8 UV-I 413 W/m 15,4 km/h (3 Bft)
09.03.2014 15:20 20,8 C 17,8 C 39 % 1026,8 hPa 0,0 l/m 2 min 0 min 0,8 UV-I 406 W/m 15,4 km/h (3 Bft)
09.03.2014 15:22 20,7 C 17,8 C 39 % 1026,8 hPa 0,0 l/m 2 min 0 min 0,8 UV-I 406 W/m 12,9 km/h (3 Bft)
09.03.2014 15:24 20,7 C 17,8 C 39 % 1026,7 hPa 0,0 l/m 2 min 0 min 0,7 UV-I 401 W/m 15,4 km/h (3 Bft)
09.03.2014 15:26 20,7 C 17,8 C 38 % 1026,7 hPa 0,0 l/m 2 min 0 min 0,7 UV-I 404 W/m 15,4 km/h (3 Bft)
09.03.2014 15:28 20,7 C 17,8 C 38 % 1026,7 hPa 0,0 l/m 2 min 0 min 0,7 UV-I 406 W/m 7,7 km/h (2 Bft)
09.03.2014 15:30 20,8 C 17,8 C 38 % 1026,6 hPa 0,0 l/m 2 min 0 min 0,7 UV-I 406 W/m 10,3 km/h (2 Bft)
09.03.2014 15:32 20,8 C 17,8 C 38 % 1026,5 hPa 0,0 l/m 2 min 0 min 0,7 UV-I 399 W/m 12,9 km/h (3 Bft)
09.03.2014 15:34 20,7 C 17,8 C 38 % 1026,5 hPa 0,0 l/m 2 min 0 min 0,6 UV-I 392 W/m 15,4 km/h (3 Bft)
09.03.2014 15:36 20,8 C 17,8 C 40 % 1026,7 hPa 0,0 l/m 2 min 0 min 0,6 UV-I 390 W/m 7,7 km/h (2 Bft)
09.03.2014 15:38 20,8 C 17,8 C 38 % 1026,6 hPa 0,0 l/m 2 min 0 min 0,6 UV-I 385 W/m 12,9 km/h (3 Bft)
09.03.2014 15:40 20,8 C 17,8 C 39 % 1026,6 hPa 0,0 l/m 2 min 0 min 0,6 UV-I 373 W/m 10,3 km/h (2 Bft)
09.03.2014 15:42 20,8 C 17,8 C 39 % 1026,6 hPa 0,0 l/m 2 min 0 min 0,6 UV-I 366 W/m 7,7 km/h (2 Bft)
09.03.2014 15:44 20,9 C 17,8 C 38 % 1026,6 hPa 0,0 l/m 2 min 0 min 0,5 UV-I 362 W/m 7,7 km/h (2 Bft)
09.03.2014 15:46 20,9 C 17,8 C 38 % 1026,5 hPa 0,0 l/m 2 min 0 min 0,5 UV-I 359 W/m 10,3 km/h (2 Bft)
09.03.2014 15:48 20,9 C 17,8 C 39 % 1026,7 hPa 0,0 l/m 2 min 0 min 0,5 UV-I 346 W/m 12,9 km/h (3 Bft)
09.03.2014 15:50 20,8 C 17,8 C 38 % 1026,6 hPa 0,0 l/m 2 min 0 min 0,5 UV-I 345 W/m 15,4 km/h (3 Bft)
09.03.2014 15:52 20,8 C 17,8 C 38 % 1026,5 hPa 0,0 l/m 2 min 0 min 0,0 UV-I 343 W/m 10,3 km/h (2 Bft)
09.03.2014 15:54 20,8 C 17,8 C 38 % 1026,5 hPa 0,0 l/m 2 min 0 min 0,0 UV-I 334 W/m 10,3 km/h (2 Bft)
09.03.2014 15:56 20,8 C 17,8 C 39 % 1026,6 hPa 0,0 l/m 2 min 0 min 0,0 UV-I 332 W/m 15,4 km/h (3 Bft)
09.03.2014 15:58 20,8 C 17,8 C 39 % 1026,5 hPa 0,0 l/m 2 min 0 min 0,0 UV-I 327 W/m 10,3 km/h (2 Bft)
09.03.2014 16:00 20,8 C 17,8 C 39 % 1026,6 hPa 0,0 l/m 2 min 0 min 0,0 UV-I 320 W/m 7,7 km/h (2 Bft)
09.03.2014 16:02 20,8 C 17,8 C 39 % 1026,5 hPa 0,0 l/m 2 min 0 min 0,0 UV-I 318 W/m 12,9 km/h (3 Bft)
09.03.2014 16:04 20,8 C 17,2 C 39 % 1026,5 hPa 0,0 l/m 2 min 0 min 0,0 UV-I 315 W/m 15,4 km/h (3 Bft)
09.03.2014 16:06 20,8 C 17,8 C 38 % 1026,5 hPa 0,0 l/m 2 min 0 min 0,0 UV-I 309 W/m 18,0 km/h (3 Bft)
09.03.2014 16:08 20,8 C 17,8 C 37 % 1026,6 hPa 0,0 l/m 2 min 0 min 0,0 UV-I 304 W/m 12,9 km/h (3 Bft)
09.03.2014 16:10 20,7 C 17,8 C 38 % 1026,5 hPa 0,0 l/m 2 min 0 min 0,0 UV-I 295 W/m 12,9 km/h (3 Bft)
09.03.2014 16:12 20,7 C 17,8 C 39 % 1026,5 hPa 0,0 l/m 2 min 0 min 0,0 UV-I 292 W/m 12,9 km/h (3 Bft)
09.03.2014 16:14 20,7 C 17,8 C 38 % 1026,5 hPa 0,0 l/m 2 min 0 min 0,0 UV-I 288 W/m 10,3 km/h (2 Bft)
09.03.2014 16:16 20,7 C 17,8 C 39 % 1026,5 hPa 0,0 l/m 2 min 0 min 0,0 UV-I 287 W/m 15,4 km/h (3 Bft)
09.03.2014 16:18 20,7 C 17,2 C 38 % 1026,5 hPa 0,0 l/m 2 min 0 min 0,0 UV-I 276 W/m 12,9 km/h (3 Bft)
09.03.2014 16:20 20,7 C 17,2 C 38 % 1026,5 hPa 0,0 l/m 2 min 0 min 0,0 UV-I 274 W/m 10,3 km/h (2 Bft)
09.03.2014 16:22 20,6 C 17,2 C 38 % 1026,5 hPa 0,0 l/m 2 min 0 min 0,0 UV-I 265 W/m 12,9 km/h (3 Bft)
09.03.2014 16:24 20,6 C 17,2 C 39 % 1026,6 hPa 0,0 l/m 2 min 0 min 0,0 UV-I 260 W/m 10,3 km/h (2 Bft)
09.03.2014 16:26 20,5 C 17,2 C 40 % 1026,5 hPa 0,0 l/m 2 min 0 min 0,0 UV-I 255 W/m 10,3 km/h (2 Bft)
09.03.2014 16:28 20,6 C 17,2 C 39 % 1026,5 hPa 0,0 l/m 2 min 0 min 0,0 UV-I 248 W/m 7,7 km/h (2 Bft)
09.03.2014 16:30 20,5 C 17,2 C 39 % 1026,4 hPa 0,0 l/m 2 min 0 min 0,0 UV-I 237 W/m 12,9 km/h (3 Bft)
09.03.2014 16:32 20,4 C 16,7 C 38 % 1026,5 hPa 0,0 l/m 2 min 0 min 0,0 UV-I 227 W/m 2,6 km/h (1 Bft)
09.03.2014 16:34 20,3 C 16,7 C 39 % 1026,4 hPa 0,0 l/m 2 min 0 min 0,0 UV-I 218 W/m 7,7 km/h (2 Bft)
09.03.2014 16:36 20,3 C 16,7 C 40 % 1026,4 hPa 0,0 l/m 2 min 0 min 0,0 UV-I 218 W/m 2,6 km/h (1 Bft)
09.03.2014 16:38 20,3 C 16,7 C 39 % 1026,5 hPa 0,0 l/m 2 min 0 min 0,0 UV-I 213 W/m 10,3 km/h (2 Bft)
09.03.2014 16:40 20,2 C 16,7 C 40 % 1026,3 hPa 0,0 l/m 2 min 0 min 0,0 UV-I 206 W/m 10,3 km/h (2 Bft)
09.03.2014 16:42 20,2 C 16,7 C 39 % 1026,3 hPa 0,0 l/m 2 min 0 min 0,0 UV-I 197 W/m 12,9 km/h (3 Bft)
09.03.2014 16:44 20,1 C 16,7 C 38 % 1026,4 hPa 0,0 l/m 2 min 0 min 0,0 UV-I 192 W/m 18,0 km/h (3 Bft)
09.03.2014 16:46 20,1 C 16,7 C 39 % 1026,3 hPa 0,0 l/m 2 min 0 min 0,0 UV-I 195 W/m 12,9 km/h (3 Bft)
09.03.2014 16:48 20,1 C 16,7 C 40 % 1026,4 hPa 0,0 l/m 2 min 0 min 0,0 UV-I 179 W/m 12,9 km/h (3 Bft)
09.03.2014 16:50 20,1 C 16,7 C 39 % 1026,3 hPa 0,0 l/m 2 min 0 min 0,0 UV-I 174 W/m 5,1 km/h (1 Bft)
09.03.2014 16:52 20,1 C 16,1 C 39 % 1026,3 hPa 0,0 l/m 2 min 0 min 0,0 UV-I 174 W/m 2,6 km/h (1 Bft)
09.03.2014 16:54 20,0 C 16,1 C 39 % 1026,3 hPa 0,0 l/m 2 min 0 min 0,0 UV-I 169 W/m 5,1 km/h (1 Bft)
09.03.2014 16:56 20,0 C 16,1 C 39 % 1026,3 hPa 0,0 l/m 2 min 0 min 0,0 UV-I 169 W/m 10,3 km/h (2 Bft)
09.03.2014 16:58 20,1 C 16,1 C 39 % 1026,3 hPa 0,0 l/m 2 min 0 min 0,0 UV-I 167 W/m 7,7 km/h (2 Bft)
09.03.2014 17:00 20,0 C 16,1 C 39 % 1026,3 hPa 0,0 l/m 2 min 0 min 0,0 UV-I 163 W/m 5,1 km/h (1 Bft)
09.03.2014 17:02 19,9 C 15,6 C 39 % 1026,3 hPa 0,0 l/m 2 min 0 min 0,0 UV-I 160 W/m 0,0 km/h (0 Bft)
09.03.2014 17:04 19,9 C 15,6 C 39 % 1026,3 hPa 0,0 l/m 2 min 0 min 0,0 UV-I 146 W/m 2,6 km/h (1 Bft)
09.03.2014 17:06 19,8 C 15,0 C 39 % 1026,3 hPa 0,0 l/m 2 min 0 min 0,0 UV-I 141 W/m 2,6 km/h (1 Bft)
09.03.2014 17:08 19,8 C 15,0 C 40 % 1026,3 hPa 0,0 l/m 2 min 0 min 0,0 UV-I 144 W/m 7,7 km/h (2 Bft)
09.03.2014 17:10 19,7 C 15,0 C 39 % 1026,2 hPa 0,0 l/m 2 min 0 min 0,0 UV-I 139 W/m 10,3 km/h (2 Bft)
09.03.2014 17:12 19,7 C 15,0 C 39 % 1026,3 hPa 0,0 l/m 2 min 0 min 0,0 UV-I 132 W/m 5,1 km/h (1 Bft)
09.03.2014 17:14 19,6 C 15,0 C 39 % 1026,3 hPa 0,0 l/m 2 min 0 min 0,0 UV-I 127 W/m 10,3 km/h (2 Bft)
09.03.2014 17:16 19,5 C 15,0 C 39 % 1026,2 hPa 0,0 l/m 2 min 0 min 0,0 UV-I 120 W/m 0,0 km/h (0 Bft)
09.03.2014 17:18 19,4 C 15,0 C 39 % 1026,3 hPa 0,0 l/m 2 min 0 min 0,0 UV-I 120 W/m 10,3 km/h (2 Bft)
09.03.2014 17:20 19,4 C 15,0 C 40 % 1026,2 hPa 0,0 l/m 2 min 0 min 0,0 UV-I 116 W/m 7,7 km/h (2 Bft)
09.03.2014 17:22 19,3 C 15,0 C 40 % 1026,2 hPa 0,0 l/m 2 min 0 min 0,0 UV-I 114 W/m 2,6 km/h (1 Bft)
09.03.2014 17:24 19,3 C 15,0 C 39 % 1026,2 hPa 0,0 l/m 2 min 0 min 0,0 UV-I 98 W/m 12,9 km/h (3 Bft)
09.03.2014 17:26 19,3 C 15,0 C 39 % 1026,2 hPa 0,0 l/m 2 min 0 min 0,0 UV-I 88 W/m 12,9 km/h (3 Bft)
09.03.2014 17:28 19,2 C 15,0 C 39 % 1026,2 hPa 0,0 l/m 0 min 0 min 0,0 UV-I 62 W/m 5,1 km/h (1 Bft)
09.03.2014 17:30 19,2 C 15,0 C 40 % 1026,2 hPa 0,0 l/m 0 min 0 min 0,0 UV-I 49 W/m 2,6 km/h (1 Bft)
09.03.2014 17:32 19,2 C 14,4 C 39 % 1026,3 hPa 0,0 l/m 0 min 0 min 0,0 UV-I 51 W/m 7,7 km/h (2 Bft)
09.03.2014 17:34 19,2 C 14,4 C 39 % 1026,2 hPa 0,0 l/m 0 min 0 min 0,0 UV-I 60 W/m 10,3 km/h (2 Bft)
09.03.2014 17:36 19,2 C 14,4 C 39 % 1026,3 hPa 0,0 l/m 0 min 0 min 0,0 UV-I 63 W/m 7,7 km/h (2 Bft)
09.03.2014 17:38 19,2 C 14,4 C 40 % 1026,3 hPa 0,0 l/m 0 min 0 min 0,0 UV-I 65 W/m 0,0 km/h (0 Bft)
09.03.2014 17:40 19,1 C 13,9 C 39 % 1026,3 hPa 0,0 l/m 2 min 0 min 0,0 UV-I 72 W/m 7,7 km/h (2 Bft)
09.03.2014 17:42 19,0 C 13,9 C 39 % 1026,3 hPa 0,0 l/m 2 min 0 min 0,0 UV-I 70 W/m 2,6 km/h (1 Bft)
09.03.2014 17:44 19,0 C 13,9 C 39 % 1026,3 hPa 0,0 l/m 2 min 0 min 0,0 UV-I 65 W/m 0,0 km/h (0 Bft)
09.03.2014 17:46 18,9 C 13,3 C 39 % 1026,3 hPa 0,0 l/m 0 min 0 min 0,0 UV-I 54 W/m 0,0 km/h (0 Bft)
09.03.2014 17:48 18,9 C 13,3 C 39 % 1026,3 hPa 0,0 l/m 2 min 0 min 0,0 UV-I 56 W/m 0,0 km/h (0 Bft)
09.03.2014 17:50 19,0 C 13,3 C 39 % 1026,3 hPa 0,0 l/m 2 min 0 min 0,0 UV-I 54 W/m 2,6 km/h (1 Bft)
09.03.2014 17:52 18,9 C 12,8 C 40 % 1026,3 hPa 0,0 l/m 0 min 0 min 0,0 UV-I 42 W/m 5,1 km/h (1 Bft)
09.03.2014 17:54 18,8 C 12,8 C 40 % 1026,3 hPa 0,0 l/m 0 min 0 min 0,0 UV-I 32 W/m 0,0 km/h (0 Bft)
09.03.2014 17:56 18,7 C 12,8 C 41 % 1026,3 hPa 0,0 l/m 0 min 0 min 0,0 UV-I 30 W/m 0,0 km/h (0 Bft)
09.03.2014 17:58 18,4 C 12,2 C 40 % 1026,3 hPa 0,0 l/m 0 min 0 min 0,0 UV-I 26 W/m 0,0 km/h (0 Bft)
09.03.2014 18:00 18,3 C 12,2 C 41 % 1026,4 hPa 0,0 l/m 0 min 0 min 0,0 UV-I 25 W/m 0,0 km/h (0 Bft)
09.03.2014 18:02 18,2 C 12,2 C 40 % 1026,4 hPa 0,0 l/m 0 min 0 min 0,0 UV-I 23 W/m 0,0 km/h (0 Bft)
09.03.2014 18:04 18,2 C 12,2 C 40 % 1026,4 hPa 0,0 l/m 0 min 0 min 0,0 UV-I 23 W/m 0,0 km/h (0 Bft)
09.03.2014 18:06 18,2 C 12,2 C 40 % 1026,3 hPa 0,0 l/m 0 min 0 min 0,0 UV-I 21 W/m 0,0 km/h (0 Bft)
09.03.2014 18:08 18,1 C 11,7 C 40 % 1026,4 hPa 0,0 l/m 0 min 0 min 0,0 UV-I 19 W/m 0,0 km/h (0 Bft)
09.03.2014 18:10 18,1 C 11,7 C 41 % 1026,4 hPa 0,0 l/m 0 min 0 min 0,0 UV-I 18 W/m 2,6 km/h (1 Bft)
09.03.2014 18:12 17,9 C 11,7 C 41 % 1026,4 hPa 0,0 l/m 0 min 0 min 0,0 UV-I 16 W/m 0,0 km/h (0 Bft)
09.03.2014 18:14 17,7 C 11,7 C 42 % 1026,4 hPa 0,0 l/m 0 min 0 min 0,0 UV-I 14 W/m 0,0 km/h (0 Bft)
09.03.2014 18:16 17,4 C 11,1 C 42 % 1026,4 hPa 0,0 l/m 0 min 0 min 0,0 UV-I 12 W/m 0,0 km/h (0 Bft)
09.03.2014 18:18 17,1 C 11,1 C 44 % 1026,4 hPa 0,0 l/m 0 min 0 min 0,0 UV-I 12 W/m 0,0 km/h (0 Bft)
09.03.2014 18:20 16,9 C 11,1 C 44 % 1026,4 hPa 0,0 l/m 0 min 0 min 0,0 UV-I 11 W/m 0,0 km/h (0 Bft)
09.03.2014 18:22 16,7 C 11,1 C 45 % 1026,4 hPa 0,0 l/m 0 min 0 min 0,0 UV-I 9 W/m 0,0 km/h (0 Bft)
09.03.2014 18:24 16,6 C 10,6 C 45 % 1026,4 hPa 0,0 l/m 0 min 0 min 0,0 UV-I 9 W/m 0,0 km/h (0 Bft)
09.03.2014 18:26 16,5 C 10,6 C 44 % 1026,4 hPa 0,0 l/m 0 min 0 min 0,0 UV-I 7 W/m 0,0 km/h (0 Bft)
09.03.2014 18:28 16,4 C 10,6 C 44 % 1026,4 hPa 0,0 l/m 0 min 0 min 0,0 UV-I 7 W/m 0,0 km/h (0 Bft)
09.03.2014 18:30 16,4 C 10,6 C 44 % 1026,4 hPa 0,0 l/m 0 min 0 min 0,0 UV-I 5 W/m 0,0 km/h (0 Bft)
09.03.2014 18:32 16,3 C 10,6 C 46 % 1026,4 hPa 0,0 l/m 0 min 0 min 0,0 UV-I 5 W/m 0,0 km/h (0 Bft)
09.03.2014 18:34 16,3 C 10,0 C 44 % 1026,3 hPa 0,0 l/m 0 min 0 min 0,0 UV-I 5 W/m 0,0 km/h (0 Bft)
09.03.2014 18:36 16,3 C 10,0 C 44 % 1026,3 hPa 0,0 l/m 0 min 0 min 0,0 UV-I 5 W/m 0,0 km/h (0 Bft)
09.03.2014 18:38 16,3 C 10,0 C 44 % 1026,4 hPa 0,0 l/m 0 min 0 min 0,0 UV-I 0 W/m 2,6 km/h (1 Bft)
09.03.2014 18:40 16,3 C 10,0 C 44 % 1026,4 hPa 0,0 l/m 0 min 0 min 0,0 UV-I 0 W/m 0,0 km/h (0 Bft)
09.03.2014 18:42 16,1 C 10,0 C 46 % 1026,3 hPa 0,0 l/m 0 min 0 min 0,0 UV-I 0 W/m 0,0 km/h (0 Bft)
09.03.2014 18:44 15,8 C 10,0 C 45 % 1026,4 hPa 0,0 l/m 0 min 0 min 0,0 UV-I 0 W/m 0,0 km/h (0 Bft)
09.03.2014 18:46 15,7 C 10,0 C 45 % 1026,3 hPa 0,0 l/m 0 min 0 min 0,0 UV-I 0 W/m 0,0 km/h (0 Bft)
09.03.2014 18:48 15,6 C 9,4 C 46 % 1026,3 hPa 0,0 l/m 0 min 0 min 0,0 UV-I 0 W/m 0,0 km/h (0 Bft)
09.03.2014 18:50 15,6 C 9,4 C 46 % 1026,4 hPa 0,0 l/m 0 min 0 min 0,0 UV-I 0 W/m 0,0 km/h (0 Bft)
09.03.2014 18:52 15,4 C 9,4 C 46 % 1026,4 hPa 0,0 l/m 0 min 0 min 0,0 UV-I 0 W/m 0,0 km/h (0 Bft)
09.03.2014 18:54 15,3 C 9,4 C 47 % 1026,5 hPa 0,0 l/m 0 min 0 min 0,0 UV-I 0 W/m 0,0 km/h (0 Bft)
09.03.2014 18:56 15,1 C 9,4 C 48 % 1026,4 hPa 0,0 l/m 0 min 0 min 0,0 UV-I 0 W/m 0,0 km/h (0 Bft)
09.03.2014 18:58 14,9 C 9,4 C 48 % 1026,5 hPa 0,0 l/m 0 min 0 min 0,0 UV-I 0 W/m 0,0 km/h (0 Bft)
09.03.2014 19:00 14,7 C 9,4 C 49 % 1026,5 hPa 0,0 l/m 0 min 0 min 0,0 UV-I 0 W/m 0,0 km/h (0 Bft)
09.03.2014 19:02 14,6 C 8,9 C 49 % 1026,5 hPa 0,0 l/m 0 min 0 min 0,0 UV-I 0 W/m 0,0 km/h (0 Bft)
09.03.2014 19:04 14,4 C 8,9 C 49 % 1026,4 hPa 0,0 l/m 0 min 0 min 0,0 UV-I 0 W/m 0,0 km/h (0 Bft)
09.03.2014 19:06 14,2 C 8,9 C 49 % 1026,5 hPa 0,0 l/m 0 min 0 min 0,0 UV-I 0 W/m 0,0 km/h (0 Bft)
09.03.2014 19:08 14,2 C 8,9 C 50 % 1026,4 hPa 0,0 l/m 0 min 0 min 0,0 UV-I 0 W/m 0,0 km/h (0 Bft)
09.03.2014 19:10 14,2 C 8,9 C 51 % 1026,5 hPa 0,0 l/m 0 min 0 min 0,0 UV-I 0 W/m 0,0 km/h (0 Bft)
09.03.2014 19:12 14,1 C 8,9 C 51 % 1026,4 hPa 0,0 l/m 0 min 0 min 0,0 UV-I 0 W/m 0,0 km/h (0 Bft)
09.03.2014 19:14 13,9 C 8,9 C 51 % 1026,3 hPa 0,0 l/m 0 min 0 min 0,0 UV-I 0 W/m 0,0 km/h (0 Bft)
09.03.2014 19:16 13,9 C 8,3 C 50 % 1026,4 hPa 0,0 l/m 0 min 0 min 0,0 UV-I 0 W/m 0,0 km/h (0 Bft)
09.03.2014 19:18 13,8 C 8,3 C 51 % 1026,4 hPa 0,0 l/m 0 min 0 min 0,0 UV-I 0 W/m 0,0 km/h (0 Bft)
09.03.2014 19:20 13,8 C 8,3 C 50 % 1026,4 hPa 0,0 l/m 0 min 0 min 0,0 UV-I 0 W/m 0,0 km/h (0 Bft)
09.03.2014 19:22 13,9 C 8,3 C 50 % 1026,4 hPa 0,0 l/m 0 min 0 min 0,0 UV-I 0 W/m 0,0 km/h (0 Bft)
09.03.2014 19:24 14,0 C 8,3 C 50 % 1026,4 hPa 0,0 l/m 0 min 0 min 0,0 UV-I 0 W/m 0,0 km/h (0 Bft)
09.03.2014 19:26 14,1 C 8,3 C 50 % 1026,4 hPa 0,0 l/m 0 min 0 min 0,0 UV-I 0 W/m 0,0 km/h (0 Bft)
09.03.2014 19:28 14,2 C 8,3 C 49 % 1026,4 hPa 0,0 l/m 0 min 0 min 0,0 UV-I 0 W/m 0,0 km/h (0 Bft)
09.03.2014 19:30 14,2 C 8,3 C 49 % 1026,3 hPa 0,0 l/m 0 min 0 min 0,0 UV-I 0 W/m 0,0 km/h (0 Bft)
09.03.2014 19:32 14,2 C 8,3 C 49 % 1026,4 hPa 0,0 l/m 0 min 0 min 0,0 UV-I 0 W/m 2,6 km/h (1 Bft)
09.03.2014 19:34 14,2 C 8,3 C 48 % 1026,3 hPa 0,0 l/m 0 min 0 min 0,0 UV-I 0 W/m 0,0 km/h (0 Bft)
09.03.2014 19:36 14,2 C 8,3 C 48 % 1026,3 hPa 0,0 l/m 0 min 0 min 0,0 UV-I 0 W/m 0,0 km/h (0 Bft)
09.03.2014 19:38 14,3 C 8,3 C 48 % 1026,3 hPa 0,0 l/m 0 min 0 min 0,0 UV-I 0 W/m 2,6 km/h (1 Bft)
09.03.2014 19:40 14,4 C 8,9 C 48 % 1026,3 hPa 0,0 l/m 0 min 0 min 0,0 UV-I 0 W/m 7,7 km/h (2 Bft)
09.03.2014 19:42 14,5 C 8,9 C 48 % 1026,3 hPa 0,0 l/m 0 min 0 min 0,0 UV-I 0 W/m 7,7 km/h (2 Bft)
09.03.2014 19:44 14,6 C 8,9 C 48 % 1026,3 hPa 0,0 l/m 0 min 0 min 0,0 UV-I 0 W/m 2,6 km/h (1 Bft)
09.03.2014 19:46 14,7 C 9,4 C 48 % 1026,3 hPa 0,0 l/m 0 min 0 min 0,0 UV-I 0 W/m 0,0 km/h (0 Bft)
09.03.2014 19:48 14,7 C 9,4 C 47 % 1026,3 hPa 0,0 l/m 0 min 0 min 0,0 UV-I 0 W/m 5,1 km/h (1 Bft)
09.03.2014 19:50 14,7 C 9,4 C 47 % 1026,3 hPa 0,0 l/m 0 min 0 min 0,0 UV-I 0 W/m 2,6 km/h (1 Bft)
09.03.2014 19:52 14,7 C 9,4 C 47 % 1026,3 hPa 0,0 l/m 0 min 0 min 0,0 UV-I 0 W/m 2,6 km/h (1 Bft)
09.03.2014 19:54 14,6 C 9,4 C 47 % 1026,2 hPa 0,0 l/m 0 min 0 min 0,0 UV-I 0 W/m 5,1 km/h (1 Bft)
09.03.2014 19:56 14,6 C 9,4 C 47 % 1026,2 hPa 0,0 l/m 0 min 0 min 0,0 UV-I 0 W/m 0,0 km/h (0 Bft)
09.03.2014 19:58 14,6 C 9,4 C 47 % 1026,2 hPa 0,0 l/m 0 min 0 min 0,0 UV-I 0 W/m 7,7 km/h (2 Bft)
09.03.2014 20:00 14,4 C 9,4 C 48 % 1026,2 hPa 0,0 l/m 0 min 0 min 0,0 UV-I 0 W/m 5,1 km/h (1 Bft)
09.03.2014 20:02 14,4 C 9,4 C 48 % 1026,2 hPa 0,0 l/m 0 min 0 min 0,0 UV-I 0 W/m 2,6 km/h (1 Bft)
09.03.2014 20:04 14,3 C 9,4 C 48 % 1026,2 hPa 0,0 l/m 0 min 0 min 0,0 UV-I 0 W/m 2,6 km/h (1 Bft)
09.03.2014 20:06 14,3 C 9,4 C 48 % 1026,2 hPa 0,0 l/m 0 min 0 min 0,0 UV-I 0 W/m 2,6 km/h (1 Bft)
09.03.2014 20:08 14,2 C 9,4 C 48 % 1026,2 hPa 0,0 l/m 0 min 0 min 0,0 UV-I 0 W/m 7,7 km/h (2 Bft)
09.03.2014 20:10 14,2 C 9,4 C 48 % 1026,2 hPa 0,0 l/m 0 min 0 min 0,0 UV-I 0 W/m 7,7 km/h (2 Bft)
09.03.2014 20:12 14,2 C 9,4 C 49 % 1026,2 hPa 0,0 l/m 0 min 0 min 0,0 UV-I 0 W/m 7,7 km/h (2 Bft)
09.03.2014 20:14 14,2 C 9,4 C 48 % 1026,2 hPa 0,0 l/m 0 min 0 min 0,0 UV-I 0 W/m 2,6 km/h (1 Bft)
09.03.2014 20:16 14,2 C 9,4 C 49 % 1026,2 hPa 0,0 l/m 0 min 0 min 0,0 UV-I 0 W/m 5,1 km/h (1 Bft)
09.03.2014 20:18 14,2 C 9,4 C 49 % 1026,2 hPa 0,0 l/m 0 min 0 min 0,0 UV-I 0 W/m 10,3 km/h (2 Bft)
09.03.2014 20:20 14,2 C 9,4 C 49 % 1026,2 hPa 0,0 l/m 0 min 0 min 0,0 UV-I 0 W/m 0,0 km/h (0 Bft)
09.03.2014 20:22 14,1 C 9,4 C 49 % 1026,2 hPa 0,0 l/m 0 min 0 min 0,0 UV-I 0 W/m 10,3 km/h (2 Bft)
09.03.2014 20:24 14,1 C 9,4 C 49 % 1026,1 hPa 0,0 l/m 0 min 0 min 0,0 UV-I 0 W/m 7,7 km/h (2 Bft)
09.03.2014 20:26 14,1 C 9,4 C 50 % 1026,1 hPa 0,0 l/m 0 min 0 min 0,0 UV-I 0 W/m 5,1 km/h (1 Bft)
09.03.2014 20:28 14,0 C 9,4 C 50 % 1026,2 hPa 0,0 l/m 0 min 0 min 0,0 UV-I 0 W/m 0,0 km/h (0 Bft)
09.03.2014 20:30 13,9 C 9,4 C 50 % 1026,1 hPa 0,0 l/m 0 min 0 min 0,0 UV-I 0 W/m 5,1 km/h (1 Bft)
09.03.2014 20:32 13,8 C 9,4 C 50 % 1026,2 hPa 0,0 l/m 0 min 0 min 0,0 UV-I 0 W/m 2,6 km/h (1 Bft)
09.03.2014 20:34 13,8 C 9,4 C 51 % 1026,2 hPa 0,0 l/m 0 min 0 min 0,0 UV-I 0 W/m 7,7 km/h (2 Bft)
09.03.2014 20:36 13,7 C 9,4 C 51 % 1026,2 hPa 0,0 l/m 0 min 0 min 0,0 UV-I 0 W/m 7,7 km/h (2 Bft)
09.03.2014 20:38 13,7 C 10,0 C 51 % 1026,2 hPa 0,0 l/m 0 min 0 min 0,0 UV-I 0 W/m 7,7 km/h (2 Bft)
09.03.2014 20:40 13,7 C 10,0 C 52 % 1026,2 hPa 0,0 l/m 0 min 0 min 0,0 UV-I 0 W/m 7,7 km/h (2 Bft)
09.03.2014 20:42 13,7 C 10,0 C 52 % 1026,2 hPa 0,0 l/m 0 min 0 min 0,0 UV-I 0 W/m 10,3 km/h (2 Bft)
09.03.2014 20:44 13,6 C 10,0 C 52 % 1026,2 hPa 0,0 l/m 0 min 0 min 0,0 UV-I 0 W/m 10,3 km/h (2 Bft)
09.03.2014 20:46 13,6 C 9,4 C 52 % 1026,2 hPa 0,0 l/m 0 min 0 min 0,0 UV-I 0 W/m 7,7 km/h (2 Bft)
09.03.2014 20:48 13,5 C 9,4 C 53 % 1026,1 hPa 0,0 l/m 0 min 0 min 0,0 UV-I 0 W/m 7,7 km/h (2 Bft)
09.03.2014 20:50 13,4 C 9,4 C 53 % 1026,2 hPa 0,0 l/m 0 min 0 min 0,0 UV-I 0 W/m 10,3 km/h (2 Bft)
09.03.2014 20:52 13,4 C 9,4 C 53 % 1026,2 hPa 0,0 l/m 0 min 0 min 0,0 UV-I 0 W/m 7,7 km/h (2 Bft)
09.03.2014 20:54 13,4 C 9,4 C 53 % 1026,1 hPa 0,0 l/m 0 min 0 min 0,0 UV-I 0 W/m 7,7 km/h (2 Bft)
09.03.2014 20:56 13,3 C 9,4 C 54 % 1026,2 hPa 0,0 l/m 0 min 0 min 0,0 UV-I 0 W/m 7,7 km/h (2 Bft)
09.03.2014 20:58 13,2 C 9,4 C 54 % 1026,2 hPa 0,0 l/m 0 min 0 min 0,0 UV-I 0 W/m 7,7 km/h (2 Bft)
09.03.2014 21:00 13,2 C 9,4 C 54 % 1026,2 hPa 0,0 l/m 0 min 0 min 0,0 UV-I 0 W/m 10,3 km/h (2 Bft)
09.03.2014 21:02 13,1 C 9,4 C 54 % 1026,2 hPa 0,0 l/m 0 min 0 min 0,0 UV-I 0 W/m 10,3 km/h (2 Bft)
09.03.2014 21:04 13,1 C 9,4 C 54 % 1026,2 hPa 0,0 l/m 0 min 0 min 0,0 UV-I 0 W/m 10,3 km/h (2 Bft)
09.03.2014 21:06 13,1 C 9,4 C 54 % 1026,2 hPa 0,0 l/m 0 min 0 min 0,0 UV-I 0 W/m 7,7 km/h (2 Bft)
09.03.2014 21:08 13,1 C 9,4 C 55 % 1026,2 hPa 0,0 l/m 0 min 0 min 0,0 UV-I 0 W/m 12,9 km/h (3 Bft)
09.03.2014 21:10 13,1 C 9,4 C 54 % 1026,2 hPa 0,0 l/m 0 min 0 min 0,0 UV-I 0 W/m 12,9 km/h (3 Bft)
09.03.2014 21:12 13,1 C 9,4 C 55 % 1026,2 hPa 0,0 l/m 0 min 0 min 0,0 UV-I 0 W/m 12,9 km/h (3 Bft)
09.03.2014 21:14 13,0 C 9,4 C 55 % 1026,2 hPa 0,0 l/m 0 min 0 min 0,0 UV-I 0 W/m 12,9 km/h (3 Bft)
09.03.2014 21:16 13,0 C 9,4 C 55 % 1026,2 hPa 0,0 l/m 0 min 0 min 0,0 UV-I 0 W/m 7,7 km/h (2 Bft)
09.03.2014 21:18 12,9 C 9,4 C 55 % 1026,2 hPa 0,0 l/m 0 min 0 min 0,0 UV-I 0 W/m 12,9 km/h (3 Bft)
09.03.2014 21:20 12,8 C 9,4 C 56 % 1026,2 hPa 0,0 l/m 0 min 0 min 0,0 UV-I 0 W/m 12,9 km/h (3 Bft)
09.03.2014 21:22 12,8 C 9,4 C 56 % 1026,2 hPa 0,0 l/m 0 min 0 min 0,0 UV-I 0 W/m 18,0 km/h (3 Bft)
09.03.2014 21:24 12,8 C 9,4 C 56 % 1026,2 hPa 0,0 l/m 0 min 0 min 0,0 UV-I 0 W/m 12,9 km/h (3 Bft)
09.03.2014 21:26 12,8 C 9,4 C 56 % 1026,2 hPa 0,0 l/m 0 min 0 min 0,0 UV-I 0 W/m 10,3 km/h (2 Bft)
09.03.2014 21:28 12,8 C 9,4 C 56 % 1026,2 hPa 0,0 l/m 0 min 0 min 0,0 UV-I 0 W/m 12,9 km/h (3 Bft)
09.03.2014 21:30 12,7 C 9,4 C 56 % 1026,3 hPa 0,0 l/m 0 min 0 min 0,0 UV-I 0 W/m 18,0 km/h (3 Bft)
09.03.2014 21:32 12,7 C 9,4 C 56 % 1026,3 hPa 0,0 l/m 0 min 0 min 0,0 UV-I 0 W/m 10,3 km/h (2 Bft)
09.03.2014 21:34 12,6 C 9,4 C 56 % 1026,3 hPa 0,0 l/m 0 min 0 min 0,0 UV-I 0 W/m 7,7 km/h (2 Bft)
09.03.2014 21:36 12,6 C 9,4 C 57 % 1026,3 hPa 0,0 l/m 0 min 0 min 0,0 UV-I 0 W/m 15,4 km/h (3 Bft)
09.03.2014 21:38 12,6 C 9,4 C 57 % 1026,3 hPa 0,0 l/m 0 min 0 min 0,0 UV-I 0 W/m 12,9 km/h (3 Bft)
09.03.2014 21:40 12,5 C 9,4 C 57 % 1026,2 hPa 0,0 l/m 0 min 0 min 0,0 UV-I 0 W/m 10,3 km/h (2 Bft)
09.03.2014 21:42 12,5 C 9,4 C 57 % 1026,2 hPa 0,0 l/m 0 min 0 min 0,0 UV-I 0 W/m 15,4 km/h (3 Bft)
09.03.2014 21:44 12,5 C 9,4 C 57 % 1026,2 hPa 0,0 l/m 0 min 0 min 0,0 UV-I 0 W/m 12,9 km/h (3 Bft)
09.03.2014 21:46 12,4 C 9,4 C 57 % 1026,2 hPa 0,0 l/m 0 min 0 min 0,0 UV-I 0 W/m 12,9 km/h (3 Bft)
09.03.2014 21:48 12,5 C 9,4 C 57 % 1026,2 hPa 0,0 l/m 0 min 0 min 0,0 UV-I 0 W/m 15,4 km/h (3 Bft)
09.03.2014 21:50 12,5 C 9,4 C 57 % 1026,2 hPa 0,0 l/m 0 min 0 min 0,0 UV-I 0 W/m 15,4 km/h (3 Bft)
09.03.2014 21:52 12,5 C 9,4 C 57 % 1026,3 hPa 0,0 l/m 0 min 0 min 0,0 UV-I 0 W/m 12,9 km/h (3 Bft)
09.03.2014 21:54 12,4 C 9,4 C 57 % 1026,3 hPa 0,0 l/m 0 min 0 min 0,0 UV-I 0 W/m 15,4 km/h (3 Bft)
09.03.2014 21:56 12,4 C 9,4 C 57 % 1026,3 hPa 0,0 l/m 0 min 0 min 0,0 UV-I 0 W/m 12,9 km/h (3 Bft)
09.03.2014 21:58 12,4 C 9,4 C 57 % 1026,3 hPa 0,0 l/m 0 min 0 min 0,0 UV-I 0 W/m 7,7 km/h (2 Bft)
09.03.2014 22:00 12,4 C 8,9 C 57 % 1026,3 hPa 0,0 l/m 0 min 0 min 0,0 UV-I 0 W/m 10,3 km/h (2 Bft)
09.03.2014 22:02 12,4 C 8,9 C 57 % 1026,2 hPa 0,0 l/m 0 min 0 min 0,0 UV-I 0 W/m 15,4 km/h (3 Bft)
09.03.2014 22:04 12,3 C 8,9 C 57 % 1026,2 hPa 0,0 l/m 0 min 0 min 0,0 UV-I 0 W/m 5,1 km/h (1 Bft)
09.03.2014 22:06 12,3 C 8,9 C 57 % 1026,2 hPa 0,0 l/m 0 min 0 min 0,0 UV-I 0 W/m 10,3 km/h (2 Bft)
09.03.2014 22:08 12,2 C 8,9 C 57 % 1026,2 hPa 0,0 l/m 0 min 0 min 0,0 UV-I 0 W/m 15,4 km/h (3 Bft)
09.03.2014 22:10 12,2 C 8,9 C 58 % 1026,2 hPa 0,0 l/m 0 min 0 min 0,0 UV-I 0 W/m 7,7 km/h (2 Bft)
09.03.2014 22:12 12,2 C 8,9 C 58 % 1026,2 hPa 0,0 l/m 0 min 0 min 0,0 UV-I 0 W/m 5,1 km/h (1 Bft)
09.03.2014 22:14 12,1 C 8,9 C 58 % 1026,2 hPa 0,0 l/m 0 min 0 min 0,0 UV-I 0 W/m 10,3 km/h (2 Bft)
09.03.2014 22:16 12,1 C 8,9 C 58 % 1026,2 hPa 0,0 l/m 0 min 0 min 0,0 UV-I 0 W/m 10,3 km/h (2 Bft)
09.03.2014 22:18 12,1 C 8,9 C 58 % 1026,2 hPa 0,0 l/m 0 min 0 min 0,0 UV-I 0 W/m 10,3 km/h (2 Bft)
09.03.2014 22:20 12,0 C 8,9 C 58 % 1026,2 hPa 0,0 l/m 0 min 0 min 0,0 UV-I 0 W/m 10,3 km/h (2 Bft)
09.03.2014 22:22 11,9 C 8,9 C 58 % 1026,2 hPa 0,0 l/m 0 min 0 min 0,0 UV-I 0 W/m 10,3 km/h (2 Bft)
09.03.2014 22:24 11,9 C 8,9 C 58 % 1026,1 hPa 0,0 l/m 0 min 0 min 0,0 UV-I 0 W/m 2,6 km/h (1 Bft)
09.03.2014 22:26 11,9 C 8,3 C 58 % 1026,1 hPa 0,0 l/m 0 min 0 min 0,0 UV-I 0 W/m 7,7 km/h (2 Bft)
09.03.2014 22:28 11,9 C 8,3 C 58 % 1026,1 hPa 0,0 l/m 0 min 0 min 0,0 UV-I 0 W/m 7,7 km/h (2 Bft)
09.03.2014 22:30 11,9 C 8,3 C 58 % 1026,1 hPa 0,0 l/m 0 min 0 min 0,0 UV-I 0 W/m 15,4 km/h (3 Bft)
09.03.2014 22:32 11,9 C 8,3 C 58 % 1026,1 hPa 0,0 l/m 0 min 0 min 0,0 UV-I 0 W/m 7,7 km/h (2 Bft)
09.03.2014 22:34 11,9 C 8,3 C 58 % 1026,1 hPa 0,0 l/m 0 min 0 min 0,0 UV-I 0 W/m 12,9 km/h (3 Bft)
09.03.2014 22:36 11,8 C 8,3 C 58 % 1026,1 hPa 0,0 l/m 0 min 0 min 0,0 UV-I 0 W/m 7,7 km/h (2 Bft)
09.03.2014 22:38 11,8 C 8,9 C 58 % 1026,1 hPa 0,0 l/m 0 min 0 min 0,0 UV-I 0 W/m 12,9 km/h (3 Bft)
09.03.2014 22:40 11,8 C 8,9 C 58 % 1026,1 hPa 0,0 l/m 0 min 0 min 0,0 UV-I 0 W/m 10,3 km/h (2 Bft)
09.03.2014 22:42 11,8 C 8,3 C 58 % 1026,1 hPa 0,0 l/m 0 min 0 min 0,0 UV-I 0 W/m 7,7 km/h (2 Bft)
09.03.2014 22:44 11,7 C 8,3 C 58 % 1026,1 hPa 0,0 l/m 0 min 0 min 0,0 UV-I 0 W/m 10,3 km/h (2 Bft)
09.03.2014 22:46 11,7 C 8,3 C 58 % 1026,1 hPa 0,0 l/m 0 min 0 min 0,0 UV-I 0 W/m 10,3 km/h (2 Bft)
09.03.2014 22:48 11,7 C 8,3 C 58 % 1026,1 hPa 0,0 l/m 0 min 0 min 0,0 UV-I 0 W/m 15,4 km/h (3 Bft)
09.03.2014 22:50 11,7 C 8,3 C 58 % 1026,1 hPa 0,0 l/m 0 min 0 min 0,0 UV-I 0 W/m 15,4 km/h (3 Bft)
09.03.2014 22:52 11,7 C 8,9 C 59 % 1026,0 hPa 0,0 l/m 0 min 0 min 0,0 UV-I 0 W/m 7,7 km/h (2 Bft)
09.03.2014 22:54 11,6 C 8,9 C 59 % 1026,0 hPa 0,0 l/m 0 min 0 min 0,0 UV-I 0 W/m 15,4 km/h (3 Bft)
09.03.2014 22:56 11,6 C 8,9 C 59 % 1026,0 hPa 0,0 l/m 0 min 0 min 0,0 UV-I 0 W/m 15,4 km/h (3 Bft)
09.03.2014 22:58 11,6 C 8,9 C 59 % 1026,0 hPa 0,0 l/m 0 min 0 min 0,0 UV-I 0 W/m 12,9 km/h (3 Bft)
09.03.2014 23:00 11,6 C 8,9 C 59 % 1026,0 hPa 0,0 l/m 0 min 0 min 0,0 UV-I 0 W/m 7,7 km/h (2 Bft)
09.03.2014 23:02 11,5 C 8,3 C 59 % 1026,0 hPa 0,0 l/m 0 min 0 min 0,0 UV-I 0 W/m 15,4 km/h (3 Bft)
09.03.2014 23:04 11,4 C 8,3 C 59 % 1025,9 hPa 0,0 l/m 0 min 0 min 0,0 UV-I 0 W/m 10,3 km/h (2 Bft)
09.03.2014 23:06 11,3 C 8,3 C 59 % 1025,9 hPa 0,0 l/m 0 min 0 min 0,0 UV-I 0 W/m 15,4 km/h (3 Bft)
09.03.2014 23:08 11,3 C 8,3 C 59 % 1025,8 hPa 0,0 l/m 0 min 0 min 0,0 UV-I 0 W/m 7,7 km/h (2 Bft)
09.03.2014 23:10 11,3 C 8,3 C 59 % 1025,8 hPa 0,0 l/m 0 min 0 min 0,0 UV-I 0 W/m 10,3 km/h (2 Bft)
09.03.2014 23:12 11,2 C 8,3 C 60 % 1025,8 hPa 0,0 l/m 0 min 0 min 0,0 UV-I 0 W/m 10,3 km/h (2 Bft)
09.03.2014 23:14 11,2 C 8,3 C 60 % 1025,8 hPa 0,0 l/m 0 min 0 min 0,0 UV-I 0 W/m 12,9 km/h (3 Bft)
09.03.2014 23:16 11,2 C 8,3 C 60 % 1025,8 hPa 0,0 l/m 0 min 0 min 0,0 UV-I 0 W/m 5,1 km/h (1 Bft)
09.03.2014 23:18 11,1 C 7,8 C 60 % 1025,8 hPa 0,0 l/m 0 min 0 min 0,0 UV-I 0 W/m 0,0 km/h (0 Bft)
09.03.2014 23:20 11,1 C 7,8 C 60 % 1025,7 hPa 0,0 l/m 0 min 0 min 0,0 UV-I 0 W/m 10,3 km/h (2 Bft)
09.03.2014 23:22 11,1 C 7,8 C 60 % 1025,7 hPa 0,0 l/m 0 min 0 min 0,0 UV-I 0 W/m 5,1 km/h (1 Bft)
09.03.2014 23:24 11,0 C 7,8 C 60 % 1025,7 hPa 0,0 l/m 0 min 0 min 0,0 UV-I 0 W/m 7,7 km/h (2 Bft)
09.03.2014 23:26 10,9 C 7,8 C 60 % 1025,7 hPa 0,0 l/m 0 min 0 min 0,0 UV-I 0 W/m 5,1 km/h (1 Bft)
09.03.2014 23:28 10,9 C 7,8 C 60 % 1025,6 hPa 0,0 l/m 0 min 0 min 0,0 UV-I 0 W/m 10,3 km/h (2 Bft)
09.03.2014 23:30 10,8 C 7,8 C 60 % 1025,7 hPa 0,0 l/m 0 min 0 min 0,0 UV-I 0 W/m 7,7 km/h (2 Bft)
09.03.2014 23:32 10,8 C 7,8 C 61 % 1025,8 hPa 0,0 l/m 0 min 0 min 0,0 UV-I 0 W/m 5,1 km/h (1 Bft)
09.03.2014 23:34 10,7 C 7,8 C 61 % 1025,8 hPa 0,0 l/m 0 min 0 min 0,0 UV-I 0 W/m 7,7 km/h (2 Bft)
09.03.2014 23:36 10,7 C 7,2 C 61 % 1025,7 hPa 0,0 l/m 0 min 0 min 0,0 UV-I 0 W/m 7,7 km/h (2 Bft)
09.03.2014 23:38 10,6 C 7,2 C 61 % 1025,7 hPa 0,0 l/m 0 min 0 min 0,0 UV-I 0 W/m 2,6 km/h (1 Bft)
09.03.2014 23:40 10,6 C 7,2 C 61 % 1025,8 hPa 0,0 l/m 0 min 0 min 0,0 UV-I 0 W/m 2,6 km/h (1 Bft)
09.03.2014 23:42 10,4 C 7,2 C 61 % 1025,7 hPa 0,0 l/m 0 min 0 min 0,0 UV-I 0 W/m 7,7 km/h (2 Bft)
09.03.2014 23:44 10,4 C 7,2 C 61 % 1025,7 hPa 0,0 l/m 0 min 0 min 0,0 UV-I 0 W/m 7,7 km/h (2 Bft)
09.03.2014 23:46 10,3 C 7,2 C 62 % 1025,7 hPa 0,0 l/m 0 min 0 min 0,0 UV-I 0 W/m 5,1 km/h (1 Bft)
09.03.2014 23:48 10,3 C 7,2 C 62 % 1025,8 hPa 0,0 l/m 0 min 0 min 0,0 UV-I 0 W/m 7,7 km/h (2 Bft)
09.03.2014 23:50 10,2 C 7,2 C 62 % 1025,8 hPa 0,0 l/m 0 min 0 min 0,0 UV-I 0 W/m 12,9 km/h (3 Bft)
09.03.2014 23:52 10,2 C 7,2 C 62 % 1025,8 hPa 0,0 l/m 0 min 0 min 0,0 UV-I 0 W/m 7,7 km/h (2 Bft)
09.03.2014 23:54 10,2 C 7,2 C 62 % 1025,8 hPa 0,0 l/m 0 min 0 min 0,0 UV-I 0 W/m 0,0 km/h (0 Bft)
09.03.2014 23:56 10,2 C 7,2 C 62 % 1025,8 hPa 0,0 l/m 0 min 0 min 0,0 UV-I 0 W/m 7,7 km/h (2 Bft)
09.03.2014 23:58 10,1 C 7,2 C 62 % 1025,8 hPa 0,0 l/m 0 min 0 min 0,0 UV-I 0 W/m 2,6 km/h (1 Bft)
_ Min-Zeit 06:46 06:40 16:08 23:28 - - - - - 01:40
Minimum _ 8,2 C 6,1 C 37 % 1025,6 hPa - - - - - 0,0 km/h (0 Bft)
_ Max-Zeit 15:10 14:32 02:26 12:12 00:00 08:18 00:00 12:52 12:56 05:42
Maximum _ 20,9 C 17,8 C 72 % 1028,3 hPa 0,0 l/m 2 min 0 min 1,8 UV-I 563 W/m 46,3 km/h
SO (6 Bft)
Durchschnitt _ 13,3 C 10,4 C 56 % 1026,9 hPa #0,0 l/m #9:20 h #0 min. 1,2 UV-I 319 W/m 16,6 km/h (3 Bft)
© 2014 W. Hausmann